Darstellungsparameter: Aktuell verwendete Einstellungen:
Skalierung der Graphiken ... ?
xyx+y,   Skalierungsfaktor:      Skalierung: Modus: x, Faktor: 1
Darstellungszeitraum ... ?
Vom - - bis: - -   Zeitraum: 10.11.2008 - 23.11.2008
Min/Max/Avg-Anzeige ... ?
Zeige MMA aktuell
Zeige MMA Monat
Zeige MMA alles
Zeige --A aktuell
Zeige --A Monat
Zeige --A alles
Keine MMA-Anzeige
MMA:
Average (ber die Originaldaten)
MMA-Basis: 17.04.2019 - 19.05.2019
Quicknavigation für Darstellung... ?
Tage:      1T, 2T, 3T, 5T -1T -2T -3T -5T +1T +2T +3T +5T
Wochen: 1W, 2W, 3W -1W -2W -3W +1W +2W +3W
Monate: 1M, 3M, 6M -1M -3M -6M +1M +3M +6M
Jahre:    1J, 3J, 5J, 10J -1J -3J -5J -10J +1J +3J +5J +10J
Nutze für die Darstellung ... ?
Originaldaten oder Mittelwerte auf ...
Stundenbasis Tagesbasis Wochenbasis
Monatsbasis Jahresbasis      Datenbasis: Original-Daten
Darstellen als:
Statistik (Auto) Statistik J:M      Darstellung:
Zur Graphik,    zurück zur Übersicht aller Sensoren.
 
Tabellarische Datenbersicht: ?
 
Sensor: Nr:Datum:Temp:Abs-Feuchte:Windchill:Wind:
Aussen-T/F 1 10-11-2008 00:02:02 12 C 8.95 g/m*3 12 C 0 km/h
2 10-11-2008 00:14:02 12.1 C 8.69 g/m*3 12.1 C 0 km/h
3 10-11-2008 00:26:02 12.3 C 8.58 g/m*3 12.3 C 0 km/h
4 10-11-2008 00:38:02 12.3 C 8.58 g/m*3 12.3 C 0 km/h
5 10-11-2008 00:50:01 12.6 C 8.41 g/m*3 12.6 C 0 km/h
6 10-11-2008 01:02:02 12.9 C 8.34 g/m*3 12.9 C 0 km/h
7 10-11-2008 01:14:02 13 C 8.05 g/m*3 13 C 0 km/h
8 10-11-2008 01:26:01 13 C 7.94 g/m*3 13 C 0 km/h
9 10-11-2008 01:38:02 13 C 7.83 g/m*3 13 C 0 km/h
10 10-11-2008 01:50:02 13.1 C 7.53 g/m*3 13.1 C 0 km/h
11 10-11-2008 02:02:01 13 C 7.48 g/m*3 13 C 0 km/h
12 10-11-2008 02:14:01 13 C 7.48 g/m*3 13 C 0 km/h
13 10-11-2008 02:26:02 12.9 C 7.55 g/m*3 12.9 C 0 km/h
14 10-11-2008 02:38:01 12.5 C 7.81 g/m*3 12.5 C 0 km/h
15 10-11-2008 02:51:05 12 C 7.99 g/m*3 12 C 0 km/h
16 10-11-2008 03:03:05 11.8 C 8.21 g/m*3 11.8 C 0 km/h
17 10-11-2008 03:15:05 11.2 C 8.51 g/m*3 11.2 C 0 km/h
18 10-11-2008 03:27:05 11.1 C 8.66 g/m*3 11.1 C 0 km/h
19 10-11-2008 03:39:02 11.3 C 8.67 g/m*3 11.3 C 0 km/h
20 10-11-2008 03:51:02 11.6 C 8.52 g/m*3 11.6 C 0 km/h
21 10-11-2008 04:03:03 11.8 C 8.31 g/m*3 11.8 C 0 km/h
22 10-11-2008 04:15:02 11.9 C 8.26 g/m*3 11.9 C 0 km/h
23 10-11-2008 04:27:02 12 C 8.21 g/m*3 12 C 0 km/h
24 10-11-2008 04:39:03 12.3 C 8.25 g/m*3 12.3 C 0 km/h
25 10-11-2008 04:51:02 12.5 C 8.14 g/m*3 12.5 C 0 km/h
Sensor: Nr:Datum:Temp:Abs-Feuchte:Windchill:Wind:
Aussen-T/F 26 10-11-2008 05:03:02 12.5 C 8.14 g/m*3 12.5 C 0 km/h
27 10-11-2008 05:15:02 12.6 C 8.08 g/m*3 12.6 C 0 km/h
28 10-11-2008 05:27:02 12.8 C 8.06 g/m*3 12.8 C 0 km/h
29 10-11-2008 05:39:02 12.9 C 8 g/m*3 12.9 C 0 km/h
30 10-11-2008 05:51:01 13 C 7.83 g/m*3 13 C 0 km/h
31 10-11-2008 06:03:02 13 C 7.83 g/m*3 13 C 0 km/h
32 10-11-2008 06:15:02 13 C 7.83 g/m*3 13 C 0 km/h
33 10-11-2008 06:27:02 13 C 7.83 g/m*3 13 C 0 km/h
34 10-11-2008 06:39:02 13.1 C 7.76 g/m*3 13.1 C 0 km/h
35 10-11-2008 06:51:02 13 C 7.71 g/m*3 13 C 0 km/h
36 10-11-2008 07:03:02 13.1 C 7.76 g/m*3 13.1 C 0 km/h
37 10-11-2008 07:15:02 13.3 C 7.74 g/m*3 13.3 C 0 km/h
38 10-11-2008 07:27:02 13.2 C 7.69 g/m*3 13.2 C 0 km/h
39 10-11-2008 07:39:02 13.1 C 7.87 g/m*3 13.1 C 0 km/h
40 10-11-2008 07:51:02 12.8 C 8.18 g/m*3 12.8 C 0 km/h
41 10-11-2008 08:03:03 12.7 C 8.24 g/m*3 12.7 C 0 km/h
42 10-11-2008 08:15:02 13 C 8.28 g/m*3 13 C 0 km/h
43 10-11-2008 08:27:02 13 C 8.28 g/m*3 13 C 0 km/h
44 10-11-2008 08:39:03 12.8 C 8.4 g/m*3 12.8 C 0 km/h
45 10-11-2008 08:51:02 13 C 8.39 g/m*3 13 C 0 km/h
46 10-11-2008 09:03:01 13 C 8.28 g/m*3 13 C 0 km/h
47 10-11-2008 09:15:02 13 C 8.28 g/m*3 13 C 0 km/h
48 10-11-2008 09:27:03 13.2 C 8.27 g/m*3 13.2 C 0 km/h
49 10-11-2008 09:39:01 13.4 C 8.14 g/m*3 13.4 C 0 km/h
50 10-11-2008 09:51:02 13.5 C 8.07 g/m*3 13.5 C 0 km/h
Sensor: Nr:Datum:Temp:Abs-Feuchte:Windchill:Wind:
Aussen-T/F 51 10-11-2008 10:03:01 13.7 C 8.05 g/m*3 13.7 C 0 km/h
52 10-11-2008 10:15:02 13.7 C 7.93 g/m*3 13.7 C 0 km/h
53 10-11-2008 10:27:02 13.7 C 7.93 g/m*3 13.7 C 0 km/h
54 10-11-2008 10:39:01 13.8 C 7.98 g/m*3 13.8 C 0 km/h
55 10-11-2008 10:51:01 14 C 7.96 g/m*3 14 C 0 km/h
56 10-11-2008 11:03:01 14 C 8.08 g/m*3 14 C 0 km/h
57 10-11-2008 11:15:01 13.8 C 8.22 g/m*3 13.8 C 0 km/h
58 10-11-2008 11:27:01 14 C 8.2 g/m*3 14 C 0 km/h
59 10-11-2008 11:39:01 14.2 C 8.06 g/m*3 14.2 C 0 km/h
60 10-11-2008 11:51:01 14.4 C 8.03 g/m*3 14.4 C 0 km/h
61 10-11-2008 12:03:02 14.7 C 7.93 g/m*3 14.7 C 0 km/h
62 10-11-2008 12:15:02 15.2 C 7.92 g/m*3 15.2 C 0 km/h
63 10-11-2008 12:27:02 15 C 7.82 g/m*3 15 C 0 km/h
64 10-11-2008 12:39:02 15.1 C 7.87 g/m*3 15.1 C 0 km/h
65 10-11-2008 12:51:02 14.9 C 7.9 g/m*3 14.9 C 0 km/h
66 10-11-2008 13:03:01 14.9 C 7.77 g/m*3 14.9 C 0 km/h
67 10-11-2008 13:15:02 15 C 7.69 g/m*3 15 C 0 km/h
68 10-11-2008 13:27:02 14.7 C 7.81 g/m*3 14.7 C 0 km/h
69 10-11-2008 13:39:02 14.8 C 7.85 g/m*3 14.8 C 0 km/h
70 10-11-2008 13:51:02 14.9 C 7.77 g/m*3 14.9 C 0 km/h
71 10-11-2008 14:03:02 15.3 C 7.84 g/m*3 15.3 C 0 km/h
72 10-11-2008 14:15:02 15.3 C 7.57 g/m*3 15.3 C 0 km/h
73 10-11-2008 14:27:02 15.1 C 7.74 g/m*3 15.1 C 0 km/h
74 10-11-2008 14:39:02 15 C 7.82 g/m*3 15 C 0 km/h
75 10-11-2008 14:51:02 14.8 C 7.85 g/m*3 14.8 C 0 km/h
Sensor: Nr:Datum:Temp:Abs-Feuchte:Windchill:Wind:
Aussen-T/F 76 10-11-2008 15:03:01 14.8 C 7.73 g/m*3 14.8 C 0 km/h
77 10-11-2008 15:15:02 14.8 C 7.73 g/m*3 14.8 C 0 km/h
78 10-11-2008 15:27:03 14.8 C 7.73 g/m*3 14.8 C 0 km/h
79 10-11-2008 15:39:01 14.9 C 7.77 g/m*3 14.9 C 0 km/h
80 10-11-2008 15:51:03 14.8 C 7.73 g/m*3 14.8 C 0 km/h
81 10-11-2008 16:03:02 14.8 C 7.73 g/m*3 14.8 C 0 km/h
82 10-11-2008 16:15:03 14.8 C 7.73 g/m*3 14.8 C 0 km/h
83 10-11-2008 16:27:03 14.7 C 7.81 g/m*3 14.7 C 0 km/h
84 10-11-2008 16:39:02 14.6 C 7.76 g/m*3 14.6 C 0 km/h
85 10-11-2008 16:51:02 14.5 C 7.84 g/m*3 14.5 C 0 km/h
86 10-11-2008 17:03:02 14.5 C 7.71 g/m*3 14.5 C 0 km/h
87 10-11-2008 17:15:02 14.6 C 7.63 g/m*3 14.6 C 0 km/h
88 10-11-2008 17:27:02 14.7 C 7.55 g/m*3 14.7 C 0 km/h
89 10-11-2008 17:39:02 14.7 C 7.55 g/m*3 14.7 C 0 km/h
90 10-11-2008 17:51:01 14.9 C 7.65 g/m*3 14.9 C 0 km/h
91 10-11-2008 18:03:02 15.1 C 7.48 g/m*3 15.1 C 0 km/h
92 10-11-2008 18:15:01 15.2 C 7.4 g/m*3 15.2 C 0 km/h
93 10-11-2008 18:27:01 15.2 C 7.4 g/m*3 15.2 C 0 km/h
94 10-11-2008 18:39:02 14.9 C 7.39 g/m*3 14.9 C 0 km/h
95 10-11-2008 18:51:02 15.1 C 7.22 g/m*3 15.1 C 0 km/h
96 10-11-2008 19:03:03 15.1 C 7.1 g/m*3 15.1 C 0 km/h
97 10-11-2008 19:15:02 15.2 C 7.14 g/m*3 15.2 C 0 km/h
98 10-11-2008 19:27:02 15 C 7.05 g/m*3 15 C 0 km/h
99 10-11-2008 19:39:03 15.1 C 7.1 g/m*3 15.1 C 0 km/h
100 10-11-2008 19:51:02 15.2 C 7.14 g/m*3 15.2 C 0 km/h
Sensor: Nr:Datum:Temp:Abs-Feuchte:Windchill:Wind:
Aussen-T/F 101 10-11-2008 20:03:02 15.1 C 7.22 g/m*3 15.1 C 0 km/h
102 10-11-2008 20:15:02 15.3 C 7.31 g/m*3 15.3 C 0 km/h
103 10-11-2008 20:27:02 15.3 C 7.31 g/m*3 15.3 C 0 km/h
104 10-11-2008 20:39:02 15.3 C 7.31 g/m*3 15.3 C 0 km/h
105 10-11-2008 20:51:02 15.4 C 7.36 g/m*3 15.4 C 0 km/h
106 10-11-2008 21:03:02 15.5 C 7.53 g/m*3 15.5 C 0 km/h
107 10-11-2008 21:15:02 15.5 C 7.53 g/m*3 15.5 C 0 km/h
108 10-11-2008 21:27:02 15.6 C 7.58 g/m*3 15.6 C 0 km/h
109 10-11-2008 21:39:02 15.4 C 7.75 g/m*3 15.4 C 0 km/h
110 10-11-2008 21:51:01 15.2 C 8.05 g/m*3 15.2 C 0 km/h
111 10-11-2008 22:03:02 15.3 C 7.97 g/m*3 15.3 C 0 km/h
112 10-11-2008 22:15:02 15.2 C 8.05 g/m*3 15.2 C 0 km/h
113 10-11-2008 22:27:02 15.5 C 7.93 g/m*3 15.5 C 0 km/h
114 10-11-2008 22:39:02 15.7 C 7.63 g/m*3 15.7 C 0 km/h
115 10-11-2008 22:52:02 15.8 C 7.67 g/m*3 15.8 C 0 km/h
116 10-11-2008 23:04:02 15.8 C 7.54 g/m*3 15.8 C 0 km/h
117 10-11-2008 23:16:02 15.9 C 7.58 g/m*3 15.9 C 0 km/h
118 10-11-2008 23:28:02 15.8 C 7.54 g/m*3 15.8 C 0 km/h
119 10-11-2008 23:40:02 15.8 C 7.54 g/m*3 15.8 C 0 km/h
120 10-11-2008 23:52:02 16 C 7.49 g/m*3 16 C 0 km/h
121 11-11-2008 00:04:02 16 C 7.49 g/m*3 16 C 0 km/h
122 11-11-2008 00:16:02 16 C 7.49 g/m*3 16 C 0 km/h
123 11-11-2008 00:28:02 15.8 C 7.67 g/m*3 15.8 C 0 km/h
124 11-11-2008 00:40:02 15.9 C 7.58 g/m*3 15.9 C 0 km/h
125 11-11-2008 00:52:02 16 C 7.49 g/m*3 16 C 0 km/h
Sensor: Nr:Datum:Temp:Abs-Feuchte:Windchill:Wind:
Aussen-T/F 126 11-11-2008 01:04:02 16.1 C 7.4 g/m*3 16.1 C 0 km/h
127 11-11-2008 01:16:02 16.1 C 7.4 g/m*3 16.1 C 0 km/h
128 11-11-2008 01:28:02 15.9 C 7.45 g/m*3 15.9 C 0 km/h
129 11-11-2008 01:40:02 15.7 C 7.49 g/m*3 15.7 C 0 km/h
130 11-11-2008 01:52:02 15.7 C 7.49 g/m*3 15.7 C 0 km/h
131 11-11-2008 02:04:02 15.4 C 7.36 g/m*3 15.4 C 0 km/h
132 11-11-2008 02:16:02 15.2 C 7.4 g/m*3 15.2 C 0 km/h
133 11-11-2008 02:28:02 15.2 C 7.4 g/m*3 15.2 C 0 km/h
134 11-11-2008 02:40:03 15.3 C 7.31 g/m*3 15.3 C 0 km/h
135 11-11-2008 02:52:03 15.2 C 7.27 g/m*3 15.2 C 0 km/h
136 11-11-2008 03:04:03 15.3 C 7.18 g/m*3 15.3 C 0 km/h
137 11-11-2008 03:16:03 15.1 C 7.1 g/m*3 15.1 C 0 km/h
138 11-11-2008 03:28:03 14.9 C 7.14 g/m*3 14.9 C 0 km/h
139 11-11-2008 03:40:03 14.7 C 7.05 g/m*3 14.7 C 0 km/h
140 11-11-2008 03:52:03 14.6 C 7.01 g/m*3 14.6 C 0 km/h
141 11-11-2008 04:04:03 14.4 C 6.92 g/m*3 14.4 C 0 km/h
142 11-11-2008 04:16:03 14.1 C 6.92 g/m*3 14.1 C 0 km/h
143 11-11-2008 04:28:03 14.1 C 6.92 g/m*3 14.1 C 0 km/h
144 11-11-2008 04:40:03 14 C 6.88 g/m*3 14 C 0 km/h
145 11-11-2008 04:52:03 13.6 C 6.94 g/m*3 13.6 C 0 km/h
146 11-11-2008 05:04:03 13.4 C 6.86 g/m*3 13.4 C 0 km/h
147 11-11-2008 05:16:03 13.3 C 6.93 g/m*3 13.3 C 0 km/h
148 11-11-2008 05:28:03 13.4 C 6.97 g/m*3 13.4 C 0 km/h
149 11-11-2008 05:40:03 13.5 C 6.9 g/m*3 13.5 C 0 km/h
150 11-11-2008 05:52:03 13.5 C 6.9 g/m*3 13.5 C 0 km/h
Sensor: Nr:Datum:Temp:Abs-Feuchte:Windchill:Wind:
Aussen-T/F 151 11-11-2008 06:04:03 13.4 C 7.09 g/m*3 13.4 C 0 km/h
152 11-11-2008 06:16:03 13.3 C 7.16 g/m*3 13.3 C 0 km/h
153 11-11-2008 06:28:03 13 C 7.37 g/m*3 13 C 0 km/h
154 11-11-2008 06:40:04 12.7 C 7.57 g/m*3 12.7 C 0 km/h
155 11-11-2008 06:52:04 12.2 C 7.66 g/m*3 12.2 C 0 km/h
156 11-11-2008 07:04:02 12 C 8.1 g/m*3 12 C 0 km/h
157 11-11-2008 07:16:02 12 C 8.21 g/m*3 12 C 0 km/h
158 11-11-2008 07:28:02 12.1 C 8.26 g/m*3 12.1 C 0 km/h
159 11-11-2008 07:40:03 13 C 8.17 g/m*3 13 C 0 km/h
160 11-11-2008 07:52:02 13.3 C 8.09 g/m*3 13.3 C 0 km/h
161 11-11-2008 08:04:01 13.2 C 8.04 g/m*3 13.2 C 0 km/h
162 11-11-2008 08:16:02 13.7 C 7.93 g/m*3 13.7 C 0 km/h
163 11-11-2008 08:28:03 14 C 7.72 g/m*3 14 C 0 km/h
164 11-11-2008 08:40:01 13.7 C 7.82 g/m*3 13.7 C 0 km/h
165 11-11-2008 08:52:02 13.8 C 7.98 g/m*3 13.8 C 0 km/h
166 11-11-2008 09:04:01 13.9 C 8.15 g/m*3 13.9 C 0 km/h
167 11-11-2008 09:16:02 13.5 C 8.19 g/m*3 13.5 C 0 km/h
168 11-11-2008 09:28:02 13.5 C 8.42 g/m*3 13.5 C 0 km/h
169 11-11-2008 09:40:01 13.4 C 8.49 g/m*3 13.4 C 0 km/h
170 11-11-2008 09:52:02 13.7 C 8.41 g/m*3 13.7 C 0 km/h
171 11-11-2008 10:04:01 13.8 C 8.22 g/m*3 13.8 C 0 km/h
172 11-11-2008 10:16:02 13.4 C 7.9 g/m*3 13.4 C 0 km/h
173 11-11-2008 10:28:02 13.4 C 7.79 g/m*3 13.4 C 0 km/h
174 11-11-2008 10:40:01 13.4 C 7.56 g/m*3 13.4 C 0 km/h
175 11-11-2008 10:52:02 13.5 C 7.6 g/m*3 13.5 C 0 km/h
Sensor: Nr:Datum:Temp:Abs-Feuchte:Windchill:Wind:
Aussen-T/F 176 11-11-2008 11:04:01 13.2 C 6.54 g/m*3 13.2 C 0 km/h
177 11-11-2008 11:16:02 12 C 6.5 g/m*3 12 C 0 km/h
178 11-11-2008 11:28:02 11.8 C 6.63 g/m*3 11.8 C 0 km/h
179 11-11-2008 11:40:02 11.6 C 6.55 g/m*3 11.6 C 0 km/h
180 11-11-2008 11:52:02 11.8 C 6.31 g/m*3 11.8 C 0 km/h
181 11-11-2008 12:04:01 11.8 C 6.31 g/m*3 11.8 C 0 km/h
182 11-11-2008 12:16:02 12 C 6.07 g/m*3 12 C 0 km/h
183 11-11-2008 12:28:02 12.3 C 5.86 g/m*3 12.3 C 0 km/h
184 11-11-2008 12:40:01 12.7 C 6.01 g/m*3 12.7 C 0 km/h
185 11-11-2008 12:52:01 13.1 C 5.93 g/m*3 13.1 C 0 km/h
186 11-11-2008 13:04:01 13 C 5.56 g/m*3 13 C 0 km/h
187 11-11-2008 13:16:01 12.9 C 5.75 g/m*3 12.9 C 0 km/h
188 11-11-2008 13:28:01 13.4 C 5.23 g/m*3 13.4 C 0 km/h
189 11-11-2008 13:40:01 13.5 C 5.03 g/m*3 13.5 C 0 km/h
190 11-11-2008 13:52:01 14.1 C 4.73 g/m*3 14.1 C 0 km/h
191 11-11-2008 14:04:02 13.8 C 4.89 g/m*3 13.8 C 0 km/h
192 11-11-2008 14:16:01 14.1 C 4.85 g/m*3 14.1 C 0 km/h
193 11-11-2008 14:28:01 14 C 4.95 g/m*3 14 C 0 km/h
194 11-11-2008 14:40:02 13.5 C 4.68 g/m*3 13.5 C 0 km/h
195 11-11-2008 14:52:02 13.1 C 4.56 g/m*3 13.1 C 0 km/h
196 11-11-2008 15:04:02 13 C 4.54 g/m*3 13 C 0 km/h
197 11-11-2008 15:16:02 12.8 C 4.7 g/m*3 12.8 C 0 km/h
198 11-11-2008 15:28:02 12.5 C 4.73 g/m*3 12.5 C 0 km/h
199 11-11-2008 15:40:02 12.2 C 4.96 g/m*3 12.2 C 0 km/h
200 11-11-2008 15:52:02 12.1 C 4.93 g/m*3 12.1 C 0 km/h
Sensor: Nr:Datum:Temp:Abs-Feuchte:Windchill:Wind:
Aussen-T/F 201 11-11-2008 16:04:01 12.1 C 4.93 g/m*3 12.1 C 0 km/h
202 11-11-2008 16:16:02 12.1 C 4.93 g/m*3 12.1 C 0 km/h
203 11-11-2008 16:28:03 12.1 C 5.15 g/m*3 12.1 C 0 km/h
204 11-11-2008 16:40:01 12 C 5.12 g/m*3 12 C 0 km/h
205 11-11-2008 16:52:01 11.9 C 5.08 g/m*3 11.9 C 0 km/h
206 11-11-2008 17:04:02 11.9 C 4.98 g/m*3 11.9 C 0 km/h
207 11-11-2008 17:16:02 11.9 C 4.87 g/m*3 11.9 C 0 km/h
208 11-11-2008 17:28:03 11.9 C 4.87 g/m*3 11.9 C 0 km/h
209 11-11-2008 17:40:01 11.7 C 4.92 g/m*3 11.7 C 0 km/h
210 11-11-2008 17:52:02 11.3 C 4.79 g/m*3 11.3 C 0 km/h
211 11-11-2008 18:04:01 11.1 C 4.83 g/m*3 11.1 C 0 km/h
212 11-11-2008 18:16:02 11.3 C 4.79 g/m*3 11.3 C 0 km/h
213 11-11-2008 18:28:02 11.4 C 4.82 g/m*3 11.4 C 0 km/h
214 11-11-2008 18:40:01 11.1 C 4.83 g/m*3 11.1 C 0 km/h
215 11-11-2008 18:52:01 11.2 C 4.87 g/m*3 11.2 C 0 km/h
216 11-11-2008 19:04:02 11.1 C 4.94 g/m*3 11.1 C 0 km/h
217 11-11-2008 19:16:01 11.1 C 5.04 g/m*3 11.1 C 0 km/h
218 11-11-2008 19:28:01 11.1 C 5.14 g/m*3 11.1 C 0 km/h
219 11-11-2008 19:40:01 11.1 C 5.14 g/m*3 11.1 C 0 km/h
220 11-11-2008 19:52:01 11.1 C 5.24 g/m*3 11.1 C 0 km/h
221 11-11-2008 20:04:02 11.1 C 5.24 g/m*3 11.1 C 0 km/h
222 11-11-2008 20:16:01 11.1 C 5.24 g/m*3 11.1 C 0 km/h
223 11-11-2008 20:28:01 11 C 5.31 g/m*3 11 C 0 km/h
224 11-11-2008 20:40:02 11 C 5.41 g/m*3 11 C 0 km/h
225 11-11-2008 20:52:02 11 C 5.51 g/m*3 11 C 0 km/h
Sensor: Nr:Datum:Temp:Abs-Feuchte:Windchill:Wind:
Aussen-T/F 226 11-11-2008 21:04:02 10.9 C 5.67 g/m*3 10.9 C 0 km/h
227 11-11-2008 21:16:02 10.8 C 5.63 g/m*3 10.8 C 0 km/h
228 11-11-2008 21:28:02 10.8 C 5.73 g/m*3 10.8 C 0 km/h
229 11-11-2008 21:40:02 10.8 C 5.73 g/m*3 10.8 C 0 km/h
230 11-11-2008 21:52:02 10.8 C 5.73 g/m*3 10.8 C 0 km/h
231 11-11-2008 22:04:01 10.7 C 5.8 g/m*3 10.7 C 0 km/h
232 11-11-2008 22:16:02 10.7 C 5.89 g/m*3 10.7 C 0 km/h
233 11-11-2008 22:28:02 9.5 C 6.64 g/m*3 9.5 C 0 km/h
234 11-11-2008 22:40:02 8.9 C 7.1 g/m*3 8.9 C 0 km/h
235 11-11-2008 22:52:02 8.7 C 7.26 g/m*3 8.7 C 0 km/h
236 11-11-2008 23:04:01 8.5 C 7.26 g/m*3 8.5 C 0 km/h
237 11-11-2008 23:16:02 8.4 C 7.21 g/m*3 8.4 C 0 km/h
238 11-11-2008 23:28:02 8.3 C 7.25 g/m*3 8.3 C 0 km/h
239 11-11-2008 23:40:01 8.3 C 7.33 g/m*3 8.3 C 0 km/h
240 11-11-2008 23:52:02 8.3 C 7.33 g/m*3 8.3 C 0 km/h
241 12-11-2008 00:04:02 8.3 C 7.33 g/m*3 8.3 C 0 km/h
242 12-11-2008 00:16:03 8.2 C 7.37 g/m*3 8.2 C 0 km/h
243 12-11-2008 00:28:03 8.1 C 7.32 g/m*3 8.1 C 0 km/h
244 12-11-2008 00:40:02 8.2 C 7.45 g/m*3 8.2 C 0 km/h
245 12-11-2008 00:52:01 8.1 C 7.41 g/m*3 8.1 C 0 km/h
246 12-11-2008 01:04:02 8.3 C 7.5 g/m*3 8.3 C 0 km/h
247 12-11-2008 01:16:01 8.3 C 7.5 g/m*3 8.3 C 0 km/h
248 12-11-2008 01:28:01 8.4 C 7.55 g/m*3 8.4 C 0 km/h
249 12-11-2008 01:40:02 8.5 C 7.51 g/m*3 8.5 C 0 km/h
250 12-11-2008 01:52:02 8.5 C 7.51 g/m*3 8.5 C 0 km/h
Sensor: Nr:Datum:Temp:Abs-Feuchte:Windchill:Wind:
Aussen-T/F 251 12-11-2008 02:04:02 8.2 C 7.2 g/m*3 8.2 C 0 km/h
252 12-11-2008 02:16:02 8.1 C 7.16 g/m*3 8.1 C 0 km/h
253 12-11-2008 02:28:02 8.1 C 7.16 g/m*3 8.1 C 0 km/h
254 12-11-2008 02:40:02 8 C 7.03 g/m*3 8 C 0 km/h
255 12-11-2008 02:53:03 8.1 C 6.99 g/m*3 8.1 C 0 km/h
256 12-11-2008 03:05:04 8 C 6.94 g/m*3 8 C 0 km/h
257 12-11-2008 03:17:03 7.6 C 6.85 g/m*3 7.6 C 0 km/h
258 12-11-2008 03:29:03 7.5 C 6.88 g/m*3 7.5 C 0 km/h
259 12-11-2008 03:41:01 7.3 C 6.79 g/m*3 7.3 C 0 km/h
260 12-11-2008 03:53:01 7.1 C 6.79 g/m*3 7.1 C 0 km/h
261 12-11-2008 04:05:02 7.3 C 6.95 g/m*3 7.3 C 0 km/h
262 12-11-2008 04:17:02 7.4 C 7 g/m*3 7.4 C 0 km/h
263 12-11-2008 04:29:02 7.2 C 6.91 g/m*3 7.2 C 0 km/h
264 12-11-2008 04:41:02 7.5 C 7.04 g/m*3 7.5 C 0 km/h
265 12-11-2008 04:53:02 7.7 C 7.14 g/m*3 7.7 C 0 km/h
266 12-11-2008 05:05:02 7.9 C 7.15 g/m*3 7.9 C 0 km/h
267 12-11-2008 05:17:01 7.9 C 7.15 g/m*3 7.9 C 0 km/h
268 12-11-2008 05:29:01 7.8 C 7.1 g/m*3 7.8 C 0 km/h
269 12-11-2008 05:41:02 7.6 C 7.01 g/m*3 7.6 C 0 km/h
270 12-11-2008 05:53:02 7.4 C 6.92 g/m*3 7.4 C 0 km/h
271 12-11-2008 06:05:02 7.4 C 6.92 g/m*3 7.4 C 0 km/h
272 12-11-2008 06:17:02 7.5 C 6.96 g/m*3 7.5 C 0 km/h
273 12-11-2008 06:29:02 7.8 C 6.94 g/m*3 7.8 C 0 km/h
274 12-11-2008 06:41:02 8 C 6.7 g/m*3 8 C 0 km/h
275 12-11-2008 06:53:01 8 C 6.7 g/m*3 8 C 0 km/h
Sensor: Nr:Datum:Temp:Abs-Feuchte:Windchill:Wind:
Aussen-T/F 276 12-11-2008 07:05:02 7.8 C 6.69 g/m*3 7.8 C 0 km/h
277 12-11-2008 07:17:01 7.5 C 6.56 g/m*3 7.5 C 0 km/h
278 12-11-2008 07:29:01 7.4 C 6.44 g/m*3 7.4 C 0 km/h
279 12-11-2008 07:41:01 7.2 C 6.44 g/m*3 7.2 C 0 km/h
280 12-11-2008 07:53:02 7.6 C 6.69 g/m*3 7.6 C 0 km/h
281 12-11-2008 08:05:02 7.8 C 6.61 g/m*3 7.8 C 0 km/h
282 12-11-2008 08:17:02 7.9 C 6.49 g/m*3 7.9 C 0 km/h
283 12-11-2008 08:29:02 8 C 6.45 g/m*3 8 C 0 km/h
284 12-11-2008 08:41:02 8.1 C 6.41 g/m*3 8.1 C 0 km/h
285 12-11-2008 08:53:02 7.9 C 6.49 g/m*3 7.9 C 0 km/h
286 12-11-2008 09:05:02 7.8 C 6.45 g/m*3 7.8 C 0 km/h
287 12-11-2008 09:17:02 7.6 C 6.44 g/m*3 7.6 C 0 km/h
288 12-11-2008 09:29:02 7.7 C 6.57 g/m*3 7.7 C 0 km/h
289 12-11-2008 09:41:02 8.2 C 6.7 g/m*3 8.2 C 0 km/h
290 12-11-2008 09:53:02 8.2 C 6.53 g/m*3 8.2 C 0 km/h
291 12-11-2008 10:05:01 8.2 C 6.53 g/m*3 8.2 C 0 km/h
292 12-11-2008 10:17:02 8.9 C 6.57 g/m*3 8.9 C 0 km/h
293 12-11-2008 10:29:02 9.3 C 6.38 g/m*3 9.3 C 0 km/h
294 12-11-2008 10:41:01 9.4 C 6.15 g/m*3 9.4 C 0 km/h
295 12-11-2008 10:53:02 9.6 C 6.32 g/m*3 9.6 C 0 km/h
296 12-11-2008 11:05:01 9.8 C 6.31 g/m*3 9.8 C 0 km/h
297 12-11-2008 11:17:02 10.2 C 6.38 g/m*3 10.2 C 0 km/h
298 12-11-2008 11:29:02 10.7 C 6.48 g/m*3 10.7 C 0 km/h
299 12-11-2008 11:41:01 10.6 C 6.44 g/m*3 10.6 C 0 km/h
300 12-11-2008 11:53:01 9.9 C 6.63 g/m*3 9.9 C 0 km/h
Sensor: Nr:Datum:Temp:Abs-Feuchte:Windchill:Wind:
Aussen-T/F 301 12-11-2008 12:05:01 10.4 C 6.84 g/m*3 10.4 C 0 km/h
302 12-11-2008 12:17:02 10.5 C 6.89 g/m*3 10.5 C 0 km/h
303 12-11-2008 12:29:02 10.4 C 6.65 g/m*3 10.4 C 0 km/h
304 12-11-2008 12:41:01 10.9 C 6.76 g/m*3 10.9 C 0 km/h
305 12-11-2008 12:53:01 11.2 C 6.39 g/m*3 11.2 C 0 km/h
306 12-11-2008 13:05:01 11.8 C 6.31 g/m*3 11.8 C 0 km/h
307 12-11-2008 13:17:01 11.7 C 6.38 g/m*3 11.7 C 0 km/h
308 12-11-2008 13:29:01 11.1 C 6.04 g/m*3 11.1 C 0 km/h
309 12-11-2008 13:41:01 11.5 C 6.09 g/m*3 11.5 C 0 km/h
310 12-11-2008 13:53:01 11.5 C 5.89 g/m*3 11.5 C 0 km/h
311 12-11-2008 14:05:02 11.2 C 5.88 g/m*3 11.2 C 0 km/h
312 12-11-2008 14:17:01 11.9 C 5.93 g/m*3 11.9 C 0 km/h
313 12-11-2008 14:29:01 11.7 C 5.75 g/m*3 11.7 C 0 km/h
314 12-11-2008 14:41:02 11.2 C 5.78 g/m*3 11.2 C 0 km/h
315 12-11-2008 14:53:02 10.9 C 5.97 g/m*3 10.9 C 0 km/h
316 12-11-2008 15:05:02 12 C 5.97 g/m*3 12 C 0 km/h
317 12-11-2008 15:17:01 12.3 C 5.86 g/m*3 12.3 C 0 km/h
318 12-11-2008 15:29:01 11.8 C 5.79 g/m*3 11.8 C 0 km/h
319 12-11-2008 15:41:02 11.1 C 5.84 g/m*3 11.1 C 0 km/h
320 12-11-2008 15:53:02 10.7 C 5.89 g/m*3 10.7 C 0 km/h
321 12-11-2008 16:05:02 10.8 C 5.93 g/m*3 10.8 C 0 km/h
322 12-11-2008 16:17:02 10.8 C 5.93 g/m*3 10.8 C 0 km/h
323 12-11-2008 16:29:02 10.4 C 5.88 g/m*3 10.4 C 0 km/h
324 12-11-2008 16:41:02 9.9 C 5.98 g/m*3 9.9 C 0 km/h
325 12-11-2008 16:53:02 9.6 C 5.95 g/m*3 9.6 C 0 km/h
Sensor: Nr:Datum:Temp:Abs-Feuchte:Windchill:Wind:
Aussen-T/F 326 12-11-2008 17:05:01 9.5 C 6.01 g/m*3 9.5 C 0 km/h
327 12-11-2008 17:17:02 9.2 C 6.07 g/m*3 9.2 C 0 km/h
328 12-11-2008 17:29:02 8.7 C 6.05 g/m*3 8.7 C 0 km/h
329 12-11-2008 17:41:01 8.3 C 5.98 g/m*3 8.3 C 0 km/h
330 12-11-2008 17:53:03 8.1 C 6.07 g/m*3 8.1 C 0 km/h
331 12-11-2008 18:05:02 7.8 C 6.04 g/m*3 7.8 C 0 km/h
332 12-11-2008 18:17:02 7.8 C 6.2 g/m*3 7.8 C 0 km/h
333 12-11-2008 18:29:02 7.6 C 6.2 g/m*3 7.6 C 0 km/h
334 12-11-2008 18:41:02 7.6 C 6.2 g/m*3 7.6 C 0 km/h
335 12-11-2008 18:53:03 7.8 C 6.28 g/m*3 7.8 C 0 km/h
336 12-11-2008 19:05:02 7.7 C 6.24 g/m*3 7.7 C 0 km/h
337 12-11-2008 19:17:02 7.6 C 6.2 g/m*3 7.6 C 0 km/h
338 12-11-2008 19:29:02 7.8 C 6.37 g/m*3 7.8 C 0 km/h
339 12-11-2008 19:41:02 7.7 C 6.32 g/m*3 7.7 C 0 km/h
340 12-11-2008 19:53:02 7.8 C 6.45 g/m*3 7.8 C 0 km/h
341 12-11-2008 20:05:01 7.9 C 6.41 g/m*3 7.9 C 0 km/h
342 12-11-2008 20:17:02 7.9 C 6.41 g/m*3 7.9 C 0 km/h
343 12-11-2008 20:29:02 7.8 C 6.45 g/m*3 7.8 C 0 km/h
344 12-11-2008 20:41:01 7.7 C 6.41 g/m*3 7.7 C 0 km/h
345 12-11-2008 20:53:02 7.4 C 6.28 g/m*3 7.4 C 0 km/h
346 12-11-2008 21:05:01 7.1 C 6.24 g/m*3 7.1 C 0 km/h
347 12-11-2008 21:17:02 7.1 C 6.32 g/m*3 7.1 C 0 km/h
348 12-11-2008 21:29:02 7.1 C 6.32 g/m*3 7.1 C 0 km/h
349 12-11-2008 21:41:01 7.1 C 6.32 g/m*3 7.1 C 0 km/h
350 12-11-2008 21:53:01 7.1 C 6.4 g/m*3 7.1 C 0 km/h
Sensor: Nr:Datum:Temp:Abs-Feuchte:Windchill:Wind:
Aussen-T/F 351 12-11-2008 22:05:02 7.2 C 6.44 g/m*3 7.2 C 0 km/h
352 12-11-2008 22:17:02 7.1 C 6.32 g/m*3 7.1 C 0 km/h
353 12-11-2008 22:29:02 6.8 C 6.27 g/m*3 6.8 C 0 km/h
354 12-11-2008 22:41:01 6.3 C 6.14 g/m*3 6.3 C 0 km/h
355 12-11-2008 22:53:01 6.2 C 6.18 g/m*3 6.2 C 0 km/h
356 12-11-2008 23:05:02 6 C 6.1 g/m*3 6 C 0 km/h
357 12-11-2008 23:17:01 5.7 C 6.05 g/m*3 5.7 C 0 km/h
358 12-11-2008 23:29:01 5.5 C 6.04 g/m*3 5.5 C 0 km/h
359 12-11-2008 23:41:02 5.2 C 5.92 g/m*3 5.2 C 0 km/h
360 12-11-2008 23:53:02 5 C 5.84 g/m*3 5 C 0 km/h
361 13-11-2008 00:05:02 5 C 5.91 g/m*3 5 C 0 km/h
362 13-11-2008 00:17:02 4.8 C 5.9 g/m*3 4.8 C 0 km/h
363 13-11-2008 00:29:02 4.7 C 5.93 g/m*3 4.7 C 0 km/h
364 13-11-2008 00:41:02 4.8 C 6.04 g/m*3 4.8 C 0 km/h
365 13-11-2008 00:53:02 4.8 C 6.04 g/m*3 4.8 C 0 km/h
366 13-11-2008 01:05:02 4.7 C 6.06 g/m*3 4.7 C 0 km/h
367 13-11-2008 01:17:02 4.9 C 6.21 g/m*3 4.9 C 0 km/h
368 13-11-2008 01:29:02 4.8 C 6.17 g/m*3 4.8 C 0 km/h
369 13-11-2008 01:41:02 4.7 C 6.06 g/m*3 4.7 C 0 km/h
370 13-11-2008 01:53:02 4.5 C 5.98 g/m*3 4.5 C 0 km/h
371 13-11-2008 02:05:03 4.2 C 5.86 g/m*3 4.2 C 0 km/h
372 13-11-2008 02:17:02 4 C 5.79 g/m*3 4 C 0 km/h
373 13-11-2008 02:29:02 3.7 C 5.8 g/m*3 3.7 C 0 km/h
374 13-11-2008 02:41:03 3.7 C 5.8 g/m*3 3.7 C 0 km/h
375 13-11-2008 02:53:01 3.6 C 5.82 g/m*3 3.6 C 0 km/h
Sensor: Nr:Datum:Temp:Abs-Feuchte:Windchill:Wind:
Aussen-T/F 376 13-11-2008 03:05:01 3.6 C 5.82 g/m*3 3.6 C 0 km/h
377 13-11-2008 03:17:02 3.6 C 5.88 g/m*3 3.6 C 0 km/h
378 13-11-2008 03:29:02 3.7 C 5.92 g/m*3 3.7 C 0 km/h
379 13-11-2008 03:41:02 3.6 C 5.88 g/m*3 3.6 C 0 km/h
380 13-11-2008 03:53:02 3.5 C 5.84 g/m*3 3.5 C 0 km/h
381 13-11-2008 04:05:01 3.8 C 5.96 g/m*3 3.8 C 0 km/h
382 13-11-2008 04:17:02 3.9 C 6 g/m*3 3.9 C 0 km/h
383 13-11-2008 04:29:02 3.8 C 5.96 g/m*3 3.8 C 0 km/h
384 13-11-2008 04:41:01 4 C 6.04 g/m*3 4 C 0 km/h
385 13-11-2008 04:53:02 4.2 C 6.06 g/m*3 4.2 C 0 km/h
386 13-11-2008 05:05:01 4.3 C 6.1 g/m*3 4.3 C 0 km/h
387 13-11-2008 05:17:02 4.5 C 6.18 g/m*3 4.5 C 0 km/h
388 13-11-2008 05:29:02 4.5 C 6.11 g/m*3 4.5 C 0 km/h
389 13-11-2008 05:41:01 4.6 C 6.15 g/m*3 4.6 C 0 km/h
390 13-11-2008 05:53:02 4.8 C 6.17 g/m*3 4.8 C 0 km/h
391 13-11-2008 06:05:01 4.7 C 6.13 g/m*3 4.7 C 0 km/h
392 13-11-2008 06:17:02 4.7 C 6.13 g/m*3 4.7 C 0 km/h
393 13-11-2008 06:29:02 4.8 C 6.17 g/m*3 4.8 C 0 km/h
394 13-11-2008 06:41:01 4.8 C 6.17 g/m*3 4.8 C 0 km/h
395 13-11-2008 06:53:01 4.8 C 6.17 g/m*3 4.8 C 0 km/h
396 13-11-2008 07:05:01 4.8 C 6.1 g/m*3 4.8 C 0 km/h
397 13-11-2008 07:17:02 4.8 C 6.1 g/m*3 4.8 C 0 km/h
398 13-11-2008 07:29:02 5 C 6.18 g/m*3 5 C 0 km/h
399 13-11-2008 07:41:01 5.1 C 6.22 g/m*3 5.1 C 0 km/h
400 13-11-2008 07:53:01 5.1 C 6.16 g/m*3 5.1 C 0 km/h
Sensor: Nr:Datum:Temp:Abs-Feuchte:Windchill:Wind:
Aussen-T/F 401 13-11-2008 08:05:05 5 C 6.12 g/m*3 5 C 0 km/h
402 13-11-2008 08:17:02 5.1 C 6.16 g/m*3 5.1 C 0 km/h
403 13-11-2008 08:29:02 5.3 C 6.24 g/m*3 5.3 C 0 km/h
404 13-11-2008 08:41:01 5.4 C 6.28 g/m*3 5.4 C 0 km/h
405 13-11-2008 08:53:01 5.6 C 6.36 g/m*3 5.6 C 0 km/h
406 13-11-2008 09:05:01 5.7 C 6.33 g/m*3 5.7 C 0 km/h
407 13-11-2008 09:17:02 5.8 C 6.3 g/m*3 5.8 C 0 km/h
408 13-11-2008 09:29:02 6 C 6.31 g/m*3 6 C 0 km/h
409 13-11-2008 09:41:01 6.3 C 6.37 g/m*3 6.3 C 0 km/h
410 13-11-2008 09:53:01 6.6 C 6.49 g/m*3 6.6 C 0 km/h
411 13-11-2008 10:05:02 6.9 C 6.54 g/m*3 6.9 C 0 km/h
412 13-11-2008 10:17:01 7 C 6.35 g/m*3 7 C 0 km/h
413 13-11-2008 10:29:01 7.2 C 6.2 g/m*3 7.2 C 0 km/h
414 13-11-2008 10:41:02 7.3 C 6.24 g/m*3 7.3 C 0 km/h
415 13-11-2008 10:53:01 7.1 C 6.16 g/m*3 7.1 C 0 km/h
416 13-11-2008 11:05:02 7 C 6.12 g/m*3 7 C 0 km/h
417 13-11-2008 11:17:01 7.5 C 6.32 g/m*3 7.5 C 0 km/h
418 13-11-2008 11:29:01 8.1 C 6.24 g/m*3 8.1 C 0 km/h
419 13-11-2008 11:41:02 8.3 C 6.15 g/m*3 8.3 C 0 km/h
420 13-11-2008 11:53:01 8.7 C 6.23 g/m*3 8.7 C 0 km/h
421 13-11-2008 12:05:02 8.6 C 6.1 g/m*3 8.6 C 0 km/h
422 13-11-2008 12:17:02 8.8 C 6.18 g/m*3 8.8 C 0 km/h
423 13-11-2008 12:29:02 9 C 6.08 g/m*3 9 C 0 km/h
424 13-11-2008 12:41:02 9.2 C 6.07 g/m*3 9.2 C 0 km/h
425 13-11-2008 12:53:01 9.3 C 6.02 g/m*3 9.3 C 0 km/h
Sensor: Nr:Datum:Temp:Abs-Feuchte:Windchill:Wind:
Aussen-T/F 426 13-11-2008 13:05:02 9.4 C 5.97 g/m*3 9.4 C 0 km/h
427 13-11-2008 13:17:01 9.5 C 5.92 g/m*3 9.5 C 0 km/h
428 13-11-2008 13:29:01 9.6 C 5.95 g/m*3 9.6 C 0 km/h
429 13-11-2008 13:41:02 9.6 C 5.86 g/m*3 9.6 C 0 km/h
430 13-11-2008 13:53:01 9.8 C 5.85 g/m*3 9.8 C 0 km/h
431 13-11-2008 14:05:02 9.9 C 5.79 g/m*3 9.9 C 0 km/h
432 13-11-2008 14:17:01 9.9 C 5.79 g/m*3 9.9 C 0 km/h
433 13-11-2008 14:29:01 10 C 5.83 g/m*3 10 C 0 km/h
434 13-11-2008 14:41:02 10 C 5.83 g/m*3 10 C 0 km/h
435 13-11-2008 14:53:01 10 C 5.83 g/m*3 10 C 0 km/h
436 13-11-2008 15:05:01 9.8 C 5.85 g/m*3 9.8 C 0 km/h
437 13-11-2008 15:17:01 9.8 C 5.94 g/m*3 9.8 C 0 km/h
438 13-11-2008 15:29:01 9.8 C 5.94 g/m*3 9.8 C 0 km/h
439 13-11-2008 15:41:02 9.7 C 5.9 g/m*3 9.7 C 0 km/h
440 13-11-2008 15:53:02 9.6 C 5.95 g/m*3 9.6 C 0 km/h
441 13-11-2008 16:05:01 9.5 C 5.92 g/m*3 9.5 C 0 km/h
442 13-11-2008 16:17:02 9.4 C 6.06 g/m*3 9.4 C 0 km/h
443 13-11-2008 16:29:02 9.2 C 6.16 g/m*3 9.2 C 0 km/h
444 13-11-2008 16:41:01 8.9 C 6.22 g/m*3 8.9 C 0 km/h
445 13-11-2008 16:53:01 8.7 C 6.23 g/m*3 8.7 C 0 km/h
446 13-11-2008 17:05:01 8.5 C 6.23 g/m*3 8.5 C 0 km/h
447 13-11-2008 17:17:01 8.4 C 6.28 g/m*3 8.4 C 0 km/h
448 13-11-2008 17:29:01 8.2 C 6.28 g/m*3 8.2 C 0 km/h
449 13-11-2008 17:41:01 8.2 C 6.2 g/m*3 8.2 C 0 km/h
450 13-11-2008 17:53:01 8.1 C 6.16 g/m*3 8.1 C 0 km/h
Sensor: Nr:Datum:Temp:Abs-Feuchte:Windchill:Wind:
Aussen-T/F 451 13-11-2008 18:05:02 8.1 C 6.16 g/m*3 8.1 C 0 km/h
452 13-11-2008 18:17:01 7.9 C 6.08 g/m*3 7.9 C 0 km/h
453 13-11-2008 18:29:01 7.7 C 6 g/m*3 7.7 C 0 km/h
454 13-11-2008 18:41:02 7.7 C 6 g/m*3 7.7 C 0 km/h
455 13-11-2008 18:53:01 7.6 C 6.04 g/m*3 7.6 C 0 km/h
456 13-11-2008 19:05:02 7.7 C 6.08 g/m*3 7.7 C 0 km/h
457 13-11-2008 19:17:01 7.6 C 6.04 g/m*3 7.6 C 0 km/h
458 13-11-2008 19:29:01 7.5 C 6 g/m*3 7.5 C 0 km/h
459 13-11-2008 19:41:02 7.3 C 5.93 g/m*3 7.3 C 0 km/h
460 13-11-2008 19:53:02 7.3 C 6 g/m*3 7.3 C 0 km/h
461 13-11-2008 20:05:01 7.1 C 5.93 g/m*3 7.1 C 0 km/h
462 13-11-2008 20:17:01 7.1 C 6.01 g/m*3 7.1 C 0 km/h
463 13-11-2008 20:29:01 7 C 5.97 g/m*3 7 C 0 km/h
464 13-11-2008 20:41:01 6.9 C 6 g/m*3 6.9 C 0 km/h
465 13-11-2008 20:53:02 6.5 C 5.85 g/m*3 6.5 C 0 km/h
466 13-11-2008 21:05:01 6.1 C 5.7 g/m*3 6.1 C 0 km/h
467 13-11-2008 21:17:02 5.9 C 5.77 g/m*3 5.9 C 0 km/h
468 13-11-2008 21:29:02 5.8 C 5.73 g/m*3 5.8 C 0 km/h
469 13-11-2008 21:41:01 5.6 C 5.73 g/m*3 5.6 C 0 km/h
470 13-11-2008 21:53:01 5.4 C 5.65 g/m*3 5.4 C 0 km/h
471 13-11-2008 22:05:02 5.1 C 5.61 g/m*3 5.1 C 0 km/h
472 13-11-2008 22:17:01 4.8 C 5.63 g/m*3 4.8 C 0 km/h
473 13-11-2008 22:29:01 4.6 C 5.56 g/m*3 4.6 C 0 km/h
474 13-11-2008 22:41:02 4.4 C 5.55 g/m*3 4.4 C 0 km/h
475 13-11-2008 22:53:01 4.3 C 5.51 g/m*3 4.3 C 0 km/h
Sensor: Nr:Datum:Temp:Abs-Feuchte:Windchill:Wind:
Aussen-T/F 476 13-11-2008 23:05:01 4.4 C 5.62 g/m*3 4.4 C 0 km/h
477 13-11-2008 23:17:02 4.2 C 5.61 g/m*3 4.2 C 0 km/h
478 13-11-2008 23:29:02 3.8 C 5.46 g/m*3 3.8 C 0 km/h
479 13-11-2008 23:41:02 3.7 C 5.48 g/m*3 3.7 C 0 km/h
480 13-11-2008 23:53:01 3.5 C 5.41 g/m*3 3.5 C 0 km/h
481 14-11-2008 00:05:02 3.5 C 5.47 g/m*3 3.5 C 0 km/h
482 14-11-2008 00:17:02 3.5 C 5.47 g/m*3 3.5 C 0 km/h
483 14-11-2008 00:29:02 3.6 C 5.57 g/m*3 3.6 C 0 km/h
484 14-11-2008 00:41:02 3.6 C 5.57 g/m*3 3.6 C 0 km/h
485 14-11-2008 00:53:02 3.4 C 5.5 g/m*3 3.4 C 0 km/h
486 14-11-2008 01:05:02 3.1 C 5.39 g/m*3 3.1 C 0 km/h
487 14-11-2008 01:17:02 2.7 C 5.24 g/m*3 2.7 C 0 km/h
488 14-11-2008 01:29:02 2.6 C 5.27 g/m*3 2.6 C 0 km/h
489 14-11-2008 01:41:01 2.6 C 5.27 g/m*3 2.6 C 0 km/h
490 14-11-2008 01:53:01 2.5 C 5.23 g/m*3 2.5 C 0 km/h
491 14-11-2008 02:05:01 2.2 C 5.13 g/m*3 2.2 C 0 km/h
492 14-11-2008 02:17:01 2.2 C 5.13 g/m*3 2.2 C 0 km/h
493 14-11-2008 02:29:01 2.1 C 5.09 g/m*3 2.1 C 0 km/h
494 14-11-2008 02:41:01 2.5 C 5.29 g/m*3 2.5 C 0 km/h
495 14-11-2008 02:54:06 2.3 C 5.22 g/m*3 2.3 C 0 km/h
496 14-11-2008 03:06:06 2.5 C 5.29 g/m*3 2.5 C 0 km/h
497 14-11-2008 03:18:07 2.3 C 5.22 g/m*3 2.3 C 0 km/h
498 14-11-2008 03:30:07 2 C 5.11 g/m*3 2 C 0 km/h
499 14-11-2008 03:42:02 1.9 C 5.13 g/m*3 1.9 C 0 km/h
500 14-11-2008 03:54:02 1.7 C 5.06 g/m*3 1.7 C 0 km/h
Sensor: Nr:Datum:Temp:Abs-Feuchte:Windchill:Wind:
Aussen-T/F 501 14-11-2008 04:06:02 1.9 C 5.19 g/m*3 1.9 C 0 km/h
502 14-11-2008 04:18:02 1.8 C 5.15 g/m*3 1.8 C 0 km/h
503 14-11-2008 04:30:02 1.9 C 5.19 g/m*3 1.9 C 0 km/h
504 14-11-2008 04:42:02 2 C 5.22 g/m*3 2 C 0 km/h
505 14-11-2008 04:54:02 2 C 5.22 g/m*3 2 C 0 km/h
506 14-11-2008 05:06:02 2 C 5.28 g/m*3 2 C 0 km/h
507 14-11-2008 05:18:02 2.1 C 5.31 g/m*3 2.1 C 0 km/h
508 14-11-2008 05:30:02 2.2 C 5.35 g/m*3 2.2 C 0 km/h
509 14-11-2008 05:42:02 2.2 C 5.35 g/m*3 2.2 C 0 km/h
510 14-11-2008 05:54:01 2.2 C 5.35 g/m*3 2.2 C 0 km/h
511 14-11-2008 06:06:02 2.3 C 5.39 g/m*3 2.3 C 0 km/h
512 14-11-2008 06:18:02 2.2 C 5.29 g/m*3 2.2 C 0 km/h
513 14-11-2008 06:30:02 2.1 C 5.26 g/m*3 2.1 C 0 km/h
514 14-11-2008 06:42:01 2 C 5.22 g/m*3 2 C 0 km/h
515 14-11-2008 06:54:01 1.8 C 5.15 g/m*3 1.8 C 0 km/h
516 14-11-2008 07:06:02 1.7 C 5.06 g/m*3 1.7 C 0 km/h
517 14-11-2008 07:18:02 1.5 C 4.99 g/m*3 1.5 C 0 km/h
518 14-11-2008 07:30:02 1.4 C 4.91 g/m*3 1.4 C 0 km/h
519 14-11-2008 07:42:02 1.6 C 5.03 g/m*3 1.6 C 0 km/h
520 14-11-2008 07:54:02 1.9 C 5.13 g/m*3 1.9 C 0 km/h
521 14-11-2008 08:06:02 2 C 5.11 g/m*3 2 C 0 km/h
522 14-11-2008 08:18:01 2.2 C 5.18 g/m*3 2.2 C 0 km/h
523 14-11-2008 08:30:01 2.1 C 5.09 g/m*3 2.1 C 0 km/h
524 14-11-2008 08:42:02 2.2 C 5.13 g/m*3 2.2 C 0 km/h
525 14-11-2008 08:54:02 2.5 C 5.17 g/m*3 2.5 C 0 km/h
Sensor: Nr:Datum:Temp:Abs-Feuchte:Windchill:Wind:
Aussen-T/F 526 14-11-2008 09:06:02 2.9 C 5.26 g/m*3 2.9 C 0 km/h
527 14-11-2008 09:18:02 3.3 C 5.34 g/m*3 3.3 C 0 km/h
528 14-11-2008 09:30:02 3.6 C 5.45 g/m*3 3.6 C 0 km/h
529 14-11-2008 09:42:02 3.9 C 5.49 g/m*3 3.9 C 0 km/h
530 14-11-2008 09:54:02 4.2 C 5.48 g/m*3 4.2 C 0 km/h
531 14-11-2008 10:06:01 4.5 C 5.52 g/m*3 4.5 C 0 km/h
532 14-11-2008 10:18:02 4.7 C 5.53 g/m*3 4.7 C 0 km/h
533 14-11-2008 10:30:02 4.6 C 5.29 g/m*3 4.6 C 0 km/h
534 14-11-2008 10:42:01 5.1 C 5.27 g/m*3 5.1 C 0 km/h
535 14-11-2008 10:54:03 5.6 C 5.16 g/m*3 5.6 C 0 km/h
536 14-11-2008 11:06:02 5.7 C 5.12 g/m*3 5.7 C 0 km/h
537 14-11-2008 11:18:02 6 C 5.23 g/m*3 6 C 0 km/h
538 14-11-2008 11:30:02 6.8 C 4.97 g/m*3 6.8 C 0 km/h
539 14-11-2008 11:42:02 7.5 C 4.72 g/m*3 7.5 C 0 km/h
540 14-11-2008 11:54:02 8.2 C 4.61 g/m*3 8.2 C 0 km/h
541 14-11-2008 12:06:02 8.8 C 4.44 g/m*3 8.8 C 0 km/h
542 14-11-2008 12:18:02 9 C 4.32 g/m*3 9 C 0 km/h
543 14-11-2008 12:30:02 9 C 4.32 g/m*3 9 C 0 km/h
544 14-11-2008 12:42:02 8.9 C 4.38 g/m*3 8.9 C 0 km/h
545 14-11-2008 12:54:02 9 C 4.41 g/m*3 9 C 0 km/h
546 14-11-2008 13:06:02 8.9 C 4.38 g/m*3 8.9 C 0 km/h
547 14-11-2008 13:18:02 9.1 C 4.35 g/m*3 9.1 C 0 km/h
548 14-11-2008 13:30:02 9.1 C 4.35 g/m*3 9.1 C 0 km/h
549 14-11-2008 13:42:02 8.9 C 4.38 g/m*3 8.9 C 0 km/h
550 14-11-2008 13:54:01 8.8 C 4.44 g/m*3 8.8 C 0 km/h
Sensor: Nr:Datum:Temp:Abs-Feuchte:Windchill:Wind:
Aussen-T/F 551 14-11-2008 14:06:02 8.8 C 4.61 g/m*3 8.8 C 0 km/h
552 14-11-2008 14:18:02 8.7 C 4.84 g/m*3 8.7 C 0 km/h
553 14-11-2008 14:30:02 8.6 C 4.81 g/m*3 8.6 C 0 km/h
554 14-11-2008 14:42:02 8.5 C 4.87 g/m*3 8.5 C 0 km/h
555 14-11-2008 14:54:02 8.5 C 4.95 g/m*3 8.5 C 0 km/h
556 14-11-2008 15:06:02 8.2 C 5.19 g/m*3 8.2 C 0 km/h
557 14-11-2008 15:18:01 7.9 C 5.5 g/m*3 7.9 C 0 km/h
558 14-11-2008 15:30:01 7.8 C 5.63 g/m*3 7.8 C 0 km/h
559 14-11-2008 15:42:02 7.6 C 5.64 g/m*3 7.6 C 0 km/h
560 14-11-2008 15:54:02 7.5 C 5.76 g/m*3 7.5 C 0 km/h
561 14-11-2008 16:06:02 7.8 C 5.79 g/m*3 7.8 C 0 km/h
562 14-11-2008 16:18:02 7.9 C 5.83 g/m*3 7.9 C 0 km/h
563 14-11-2008 16:30:02 8 C 5.87 g/m*3 8 C 0 km/h
564 14-11-2008 16:42:02 8.1 C 5.82 g/m*3 8.1 C 0 km/h
565 14-11-2008 16:54:02 8.1 C 5.74 g/m*3 8.1 C 0 km/h
566 14-11-2008 17:06:02 8.1 C 5.82 g/m*3 8.1 C 0 km/h
567 14-11-2008 17:18:01 8.1 C 5.82 g/m*3 8.1 C 0 km/h
568 14-11-2008 17:30:01 8.1 C 5.82 g/m*3 8.1 C 0 km/h
569 14-11-2008 17:42:02 8.1 C 5.74 g/m*3 8.1 C 0 km/h
570 14-11-2008 17:54:02 8.1 C 5.82 g/m*3 8.1 C 0 km/h
571 14-11-2008 18:06:02 8.1 C 5.82 g/m*3 8.1 C 0 km/h
572 14-11-2008 18:18:02 8.1 C 5.74 g/m*3 8.1 C 0 km/h
573 14-11-2008 18:30:02 8.1 C 5.74 g/m*3 8.1 C 0 km/h
574 14-11-2008 18:42:02 8.1 C 5.74 g/m*3 8.1 C 0 km/h
575 14-11-2008 18:54:02 8.1 C 5.74 g/m*3 8.1 C 0 km/h
Sensor: Nr:Datum:Temp:Abs-Feuchte:Windchill:Wind:
Aussen-T/F 576 14-11-2008 19:06:02 8.2 C 5.86 g/m*3 8.2 C 0 km/h
577 14-11-2008 19:18:02 8.1 C 5.74 g/m*3 8.1 C 0 km/h
578 14-11-2008 19:30:03 8.1 C 5.82 g/m*3 8.1 C 0 km/h
579 14-11-2008 19:42:02 8.1 C 5.82 g/m*3 8.1 C 0 km/h
580 14-11-2008 19:54:01 8.1 C 5.82 g/m*3 8.1 C 0 km/h
581 14-11-2008 20:06:02 8.1 C 5.82 g/m*3 8.1 C 0 km/h
582 14-11-2008 20:18:01 8.1 C 5.91 g/m*3 8.1 C 0 km/h
583 14-11-2008 20:30:01 8 C 5.95 g/m*3 8 C 0 km/h
584 14-11-2008 20:42:02 8 C 5.95 g/m*3 8 C 0 km/h
585 14-11-2008 20:54:02 8 C 5.95 g/m*3 8 C 0 km/h
586 14-11-2008 21:06:02 8 C 5.95 g/m*3 8 C 0 km/h
587 14-11-2008 21:18:02 8 C 5.95 g/m*3 8 C 0 km/h
588 14-11-2008 21:30:02 8 C 5.95 g/m*3 8 C 0 km/h
589 14-11-2008 21:42:02 7.9 C 6 g/m*3 7.9 C 0 km/h
590 14-11-2008 21:54:02 7.9 C 6 g/m*3 7.9 C 0 km/h
591 14-11-2008 22:06:01 8 C 5.95 g/m*3 8 C 0 km/h
592 14-11-2008 22:18:02 8 C 5.95 g/m*3 8 C 0 km/h
593 14-11-2008 22:30:02 8 C 5.95 g/m*3 8 C 0 km/h
594 14-11-2008 22:43:01 8 C 6.04 g/m*3 8 C 0 km/h
595 14-11-2008 22:55:01 8 C 6.12 g/m*3 8 C 0 km/h
596 14-11-2008 23:07:01 8.1 C 6.16 g/m*3 8.1 C 0 km/h
597 14-11-2008 23:19:01 8.2 C 6.28 g/m*3 8.2 C 0 km/h
598 14-11-2008 23:31:01 8.2 C 6.28 g/m*3 8.2 C 0 km/h
599 14-11-2008 23:43:01 8.1 C 6.24 g/m*3 8.1 C 0 km/h
600 14-11-2008 23:55:01 8.1 C 6.32 g/m*3 8.1 C 0 km/h
Sensor: Nr:Datum:Temp:Abs-Feuchte:Windchill:Wind:
Aussen-T/F 601 15-11-2008 00:07:01 8.1 C 6.32 g/m*3 8.1 C 0 km/h
602 15-11-2008 00:19:01 8.1 C 6.32 g/m*3 8.1 C 0 km/h
603 15-11-2008 00:31:01 8.1 C 6.41 g/m*3 8.1 C 0 km/h
604 15-11-2008 00:43:02 8.1 C 6.41 g/m*3 8.1 C 0 km/h
605 15-11-2008 00:55:02 8.1 C 6.49 g/m*3 8.1 C 0 km/h
606 15-11-2008 01:07:02 8.1 C 6.49 g/m*3 8.1 C 0 km/h
607 15-11-2008 01:19:02 8 C 6.45 g/m*3 8 C 0 km/h
608 15-11-2008 01:31:02 8 C 6.53 g/m*3 8 C 0 km/h
609 15-11-2008 01:43:02 8.1 C 6.57 g/m*3 8.1 C 0 km/h
610 15-11-2008 01:55:02 8.1 C 6.57 g/m*3 8.1 C 0 km/h
611 15-11-2008 02:07:02 8.2 C 6.62 g/m*3 8.2 C 0 km/h
612 15-11-2008 02:19:02 8.2 C 6.62 g/m*3 8.2 C 0 km/h
613 15-11-2008 02:31:02 8.2 C 6.62 g/m*3 8.2 C 0 km/h
614 15-11-2008 02:43:02 8.2 C 6.62 g/m*3 8.2 C 0 km/h
615 15-11-2008 02:55:02 8.2 C 6.62 g/m*3 8.2 C 0 km/h
616 15-11-2008 03:07:02 8.2 C 6.62 g/m*3 8.2 C 0 km/h
617 15-11-2008 03:19:02 8.2 C 6.62 g/m*3 8.2 C 0 km/h
618 15-11-2008 03:31:02 8.2 C 6.62 g/m*3 8.2 C 0 km/h
619 15-11-2008 03:43:02 8.2 C 6.7 g/m*3 8.2 C 0 km/h
620 15-11-2008 03:55:02 8.2 C 6.7 g/m*3 8.2 C 0 km/h
621 15-11-2008 04:07:02 8.2 C 6.7 g/m*3 8.2 C 0 km/h
622 15-11-2008 04:19:02 8.2 C 6.7 g/m*3 8.2 C 0 km/h
623 15-11-2008 04:31:03 8.3 C 6.83 g/m*3 8.3 C 0 km/h
624 15-11-2008 04:43:03 8.4 C 6.87 g/m*3 8.4 C 0 km/h
625 15-11-2008 04:55:03 8.5 C 6.92 g/m*3 8.5 C 0 km/h
Sensor: Nr:Datum:Temp:Abs-Feuchte:Windchill:Wind:
Aussen-T/F 626 15-11-2008 05:07:03 8.5 C 6.92 g/m*3 8.5 C 0 km/h
627 15-11-2008 05:19:03 8.6 C 6.96 g/m*3 8.6 C 0 km/h
628 15-11-2008 05:31:03 8.7 C 7.01 g/m*3 8.7 C 0 km/h
629 15-11-2008 05:43:03 8.8 C 6.96 g/m*3 8.8 C 0 km/h
630 15-11-2008 05:55:03 8.8 C 6.96 g/m*3 8.8 C 0 km/h
631 15-11-2008 06:07:03 8.8 C 6.96 g/m*3 8.8 C 0 km/h
632 15-11-2008 06:19:03 8.8 C 6.96 g/m*3 8.8 C 0 km/h
633 15-11-2008 06:31:03 8.8 C 6.96 g/m*3 8.8 C 0 km/h
634 15-11-2008 06:43:03 8.9 C 7.01 g/m*3 8.9 C 0 km/h
635 15-11-2008 06:55:03 8.9 C 7.01 g/m*3 8.9 C 0 km/h
636 15-11-2008 07:07:03 9 C 6.96 g/m*3 9 C 0 km/h
637 15-11-2008 07:19:03 9 C 6.96 g/m*3 9 C 0 km/h
638 15-11-2008 07:31:03 9 C 6.96 g/m*3 9 C 0 km/h
639 15-11-2008 07:43:03 9 C 7.05 g/m*3 9 C 0 km/h
640 15-11-2008 07:55:03 9.4 C 7.15 g/m*3 9.4 C 0 km/h
641 15-11-2008 08:07:03 9.1 C 7.01 g/m*3 9.1 C 0 km/h
642 15-11-2008 08:19:01 9.3 C 7.1 g/m*3 9.3 C 0 km/h
643 15-11-2008 08:31:01 9.3 C 7.1 g/m*3 9.3 C 0 km/h
644 15-11-2008 08:43:01 9.3 C 7.01 g/m*3 9.3 C 0 km/h
645 15-11-2008 08:55:02 9.3 C 7.01 g/m*3 9.3 C 0 km/h
646 15-11-2008 09:07:02 9.4 C 7.05 g/m*3 9.4 C 0 km/h
647 15-11-2008 09:19:03 9.5 C 7.1 g/m*3 9.5 C 0 km/h
648 15-11-2008 09:31:02 9.5 C 7.01 g/m*3 9.5 C 0 km/h
649 15-11-2008 09:43:02 9.6 C 7.05 g/m*3 9.6 C 0 km/h
650 15-11-2008 09:55:02 9.6 C 7.05 g/m*3 9.6 C 0 km/h
Sensor: Nr:Datum:Temp:Abs-Feuchte:Windchill:Wind:
Aussen-T/F 651 15-11-2008 10:07:02 9.6 C 7.05 g/m*3 9.6 C 0 km/h
652 15-11-2008 10:19:02 9.7 C 7.01 g/m*3 9.7 C 0 km/h
653 15-11-2008 10:31:02 9.7 C 7.01 g/m*3 9.7 C 0 km/h
654 15-11-2008 10:43:03 9.8 C 7.05 g/m*3 9.8 C 0 km/h
655 15-11-2008 10:55:01 9.8 C 7.05 g/m*3 9.8 C 0 km/h
656 15-11-2008 11:07:02 9.8 C 7.05 g/m*3 9.8 C 0 km/h
657 15-11-2008 11:19:01 9.9 C 7.1 g/m*3 9.9 C 0 km/h
658 15-11-2008 11:31:02 10.1 C 7.09 g/m*3 10.1 C 0 km/h
659 15-11-2008 11:43:02 10.2 C 7.04 g/m*3 10.2 C 0 km/h
660 15-11-2008 11:55:02 10.4 C 7.13 g/m*3 10.4 C 0 km/h
661 15-11-2008 12:07:02 10.4 C 7.04 g/m*3 10.4 C 0 km/h
662 15-11-2008 12:19:02 10.6 C 7.03 g/m*3 10.6 C 0 km/h
663 15-11-2008 12:31:02 10.6 C 7.03 g/m*3 10.6 C 0 km/h
664 15-11-2008 12:43:02 10.7 C 7.07 g/m*3 10.7 C 0 km/h
665 15-11-2008 12:55:02 10.8 C 7.02 g/m*3 10.8 C 0 km/h
666 15-11-2008 13:07:01 11 C 6.91 g/m*3 11 C 0 km/h
667 15-11-2008 13:19:02 11 C 6.81 g/m*3 11 C 0 km/h
668 15-11-2008 13:31:02 11.1 C 6.85 g/m*3 11.1 C 0 km/h
669 15-11-2008 13:43:02 11.2 C 6.79 g/m*3 11.2 C 0 km/h
670 15-11-2008 13:55:02 11.3 C 6.83 g/m*3 11.3 C 0 km/h
671 15-11-2008 14:07:02 11.3 C 6.83 g/m*3 11.3 C 0 km/h
672 15-11-2008 14:19:02 11.3 C 6.83 g/m*3 11.3 C 0 km/h
673 15-11-2008 14:31:02 11.4 C 6.88 g/m*3 11.4 C 0 km/h
674 15-11-2008 14:43:02 11.4 C 6.88 g/m*3 11.4 C 0 km/h
675 15-11-2008 14:55:02 11.4 C 6.88 g/m*3 11.4 C 0 km/h
Sensor: Nr:Datum:Temp:Abs-Feuchte:Windchill:Wind:
Aussen-T/F 676 15-11-2008 15:07:02 11.3 C 6.94 g/m*3 11.3 C 0 km/h
677 15-11-2008 15:19:02 11.3 C 6.94 g/m*3 11.3 C 0 km/h
678 15-11-2008 15:31:02 11.3 C 6.94 g/m*3 11.3 C 0 km/h
679 15-11-2008 15:43:02 11.2 C 6.99 g/m*3 11.2 C 0 km/h
680 15-11-2008 15:55:02 11.2 C 6.99 g/m*3 11.2 C 0 km/h
681 15-11-2008 16:07:02 11.1 C 7.05 g/m*3 11.1 C 0 km/h
682 15-11-2008 16:19:02 11 C 7.01 g/m*3 11 C 0 km/h
683 15-11-2008 16:31:02 11 C 7.11 g/m*3 11 C 0 km/h
684 15-11-2008 16:43:02 11 C 7.11 g/m*3 11 C 0 km/h
685 15-11-2008 16:55:01 11 C 7.11 g/m*3 11 C 0 km/h
686 15-11-2008 17:07:02 10.9 C 7.16 g/m*3 10.9 C 0 km/h
687 15-11-2008 17:19:02 10.9 C 7.26 g/m*3 10.9 C 0 km/h
688 15-11-2008 17:31:02 10.9 C 7.26 g/m*3 10.9 C 0 km/h
689 15-11-2008 17:43:02 10.8 C 7.22 g/m*3 10.8 C 0 km/h
690 15-11-2008 17:55:02 10.8 C 7.31 g/m*3 10.8 C 0 km/h
691 15-11-2008 18:07:03 10.8 C 7.31 g/m*3 10.8 C 0 km/h
692 15-11-2008 18:19:02 10.7 C 7.27 g/m*3 10.7 C 0 km/h
693 15-11-2008 18:31:03 10.8 C 7.31 g/m*3 10.8 C 0 km/h
694 15-11-2008 18:43:03 10.7 C 7.27 g/m*3 10.7 C 0 km/h
695 15-11-2008 18:55:02 10.7 C 7.27 g/m*3 10.7 C 0 km/h
696 15-11-2008 19:07:02 10.7 C 7.27 g/m*3 10.7 C 0 km/h
697 15-11-2008 19:19:02 10.7 C 7.27 g/m*3 10.7 C 0 km/h
698 15-11-2008 19:31:02 10.7 C 7.27 g/m*3 10.7 C 0 km/h
699 15-11-2008 19:43:02 10.7 C 7.27 g/m*3 10.7 C 0 km/h
700 15-11-2008 19:55:01 10.7 C 7.37 g/m*3 10.7 C 0 km/h
Sensor: Nr:Datum:Temp:Abs-Feuchte:Windchill:Wind:
Aussen-T/F 701 15-11-2008 20:07:02 10.7 C 7.37 g/m*3 10.7 C 0 km/h
702 15-11-2008 20:19:01 10.6 C 7.32 g/m*3 10.6 C 0 km/h
703 15-11-2008 20:31:01 10.6 C 7.32 g/m*3 10.6 C 0 km/h
704 15-11-2008 20:43:01 10.6 C 7.42 g/m*3 10.6 C 0 km/h
705 15-11-2008 20:55:02 10.6 C 7.42 g/m*3 10.6 C 0 km/h
706 15-11-2008 21:07:02 10.5 C 7.47 g/m*3 10.5 C 0 km/h
707 15-11-2008 21:19:02 10.5 C 7.47 g/m*3 10.5 C 0 km/h
708 15-11-2008 21:31:02 10.5 C 7.47 g/m*3 10.5 C 0 km/h
709 15-11-2008 21:43:02 10.5 C 7.57 g/m*3 10.5 C 0 km/h
710 15-11-2008 21:55:02 10.5 C 7.57 g/m*3 10.5 C 0 km/h
711 15-11-2008 22:07:01 10.5 C 7.57 g/m*3 10.5 C 0 km/h
712 15-11-2008 22:19:02 10.5 C 7.57 g/m*3 10.5 C 0 km/h
713 15-11-2008 22:31:01 10.5 C 7.57 g/m*3 10.5 C 0 km/h
714 15-11-2008 22:43:01 10.4 C 7.52 g/m*3 10.4 C 0 km/h
715 15-11-2008 22:55:02 10.4 C 7.61 g/m*3 10.4 C 0 km/h
716 15-11-2008 23:07:01 10.4 C 7.61 g/m*3 10.4 C 0 km/h
717 15-11-2008 23:20:02 10.4 C 7.61 g/m*3 10.4 C 0 km/h
718 15-11-2008 23:32:02 10.4 C 7.61 g/m*3 10.4 C 0 km/h
719 15-11-2008 23:44:02 10.4 C 7.61 g/m*3 10.4 C 0 km/h
720 15-11-2008 23:56:03 10.3 C 7.66 g/m*3 10.3 C 0 km/h
721 16-11-2008 00:08:03 10.2 C 7.71 g/m*3 10.2 C 0 km/h
722 16-11-2008 00:20:03 10.1 C 7.85 g/m*3 10.1 C 0 km/h
723 16-11-2008 00:32:03 10 C 7.8 g/m*3 10 C 0 km/h
724 16-11-2008 00:44:03 10.1 C 7.94 g/m*3 10.1 C 0 km/h
725 16-11-2008 00:56:03 10 C 7.89 g/m*3 10 C 0 km/h
Sensor: Nr:Datum:Temp:Abs-Feuchte:Windchill:Wind:
Aussen-T/F 726 16-11-2008 01:08:03 10.1 C 7.94 g/m*3 10.1 C 0 km/h
727 16-11-2008 01:20:03 10.1 C 7.94 g/m*3 10.1 C 0 km/h
728 16-11-2008 01:32:03 10.1 C 7.94 g/m*3 10.1 C 0 km/h
729 16-11-2008 01:44:03 10.1 C 7.94 g/m*3 10.1 C 0 km/h
730 16-11-2008 01:56:03 10 C 7.99 g/m*3 10 C 0 km/h
731 16-11-2008 02:08:03 9.9 C 8.12 g/m*3 9.9 C 0 km/h
732 16-11-2008 02:20:03 10 C 8.08 g/m*3 10 C 0 km/h
733 16-11-2008 02:32:03 10.1 C 8.13 g/m*3 10.1 C 0 km/h
734 16-11-2008 02:44:03 10.2 C 8.18 g/m*3 10.2 C 0 km/h
735 16-11-2008 02:56:03 10.3 C 8.14 g/m*3 10.3 C 0 km/h
736 16-11-2008 03:08:03 10.3 C 8.04 g/m*3 10.3 C 0 km/h
737 16-11-2008 03:20:03 10.4 C 8 g/m*3 10.4 C 0 km/h
738 16-11-2008 03:32:03 10.4 C 8 g/m*3 10.4 C 0 km/h
739 16-11-2008 03:44:04 10.4 C 7.9 g/m*3 10.4 C 0 km/h
740 16-11-2008 03:56:04 10.4 C 7.9 g/m*3 10.4 C 0 km/h
741 16-11-2008 04:08:04 10.4 C 7.9 g/m*3 10.4 C 0 km/h
742 16-11-2008 04:20:04 10.5 C 7.95 g/m*3 10.5 C 0 km/h
743 16-11-2008 04:32:04 10.4 C 7.9 g/m*3 10.4 C 0 km/h
744 16-11-2008 04:44:04 10.5 C 7.95 g/m*3 10.5 C 0 km/h
745 16-11-2008 04:56:04 10.6 C 7.91 g/m*3 10.6 C 0 km/h
746 16-11-2008 05:08:04 10.7 C 7.86 g/m*3 10.7 C 0 km/h
747 16-11-2008 05:20:04 10.7 C 7.86 g/m*3 10.7 C 0 km/h
748 16-11-2008 05:32:04 10.7 C 7.86 g/m*3 10.7 C 0 km/h
749 16-11-2008 05:44:04 10.8 C 7.91 g/m*3 10.8 C 0 km/h
750 16-11-2008 05:56:04 10.8 C 7.81 g/m*3 10.8 C 0 km/h
Sensor: Nr:Datum:Temp:Abs-Feuchte:Windchill:Wind:
Aussen-T/F 751 16-11-2008 06:08:04 10.7 C 7.86 g/m*3 10.7 C 0 km/h
752 16-11-2008 06:20:04 10.5 C 7.86 g/m*3 10.5 C 0 km/h
753 16-11-2008 06:32:04 10.2 C 7.99 g/m*3 10.2 C 0 km/h
754 16-11-2008 06:44:04 10.3 C 8.14 g/m*3 10.3 C 0 km/h
755 16-11-2008 06:56:04 10.4 C 8.1 g/m*3 10.4 C 0 km/h
756 16-11-2008 07:08:04 10.5 C 8.15 g/m*3 10.5 C 0 km/h
757 16-11-2008 07:20:04 10.6 C 8.1 g/m*3 10.6 C 0 km/h
758 16-11-2008 07:32:04 10.7 C 8.05 g/m*3 10.7 C 0 km/h
759 16-11-2008 07:44:05 10.7 C 8.05 g/m*3 10.7 C 0 km/h
760 16-11-2008 07:56:05 10.8 C 8.11 g/m*3 10.8 C 0 km/h
761 16-11-2008 08:08:05 10.9 C 8.06 g/m*3 10.9 C 0 km/h
762 16-11-2008 08:20:01 11 C 8.01 g/m*3 11 C 0 km/h
763 16-11-2008 08:32:01 11.1 C 8.06 g/m*3 11.1 C 0 km/h
764 16-11-2008 08:44:01 11.2 C 8.01 g/m*3 11.2 C 0 km/h
765 16-11-2008 08:56:01 11.2 C 8.01 g/m*3 11.2 C 0 km/h
766 16-11-2008 09:08:01 11.2 C 8.01 g/m*3 11.2 C 0 km/h
767 16-11-2008 09:20:01 11.4 C 8.01 g/m*3 11.4 C 0 km/h
768 16-11-2008 09:32:01 11.7 C 8.16 g/m*3 11.7 C 0 km/h
769 16-11-2008 09:44:01 11.6 C 8.11 g/m*3 11.6 C 0 km/h
770 16-11-2008 09:56:02 11.6 C 8.21 g/m*3 11.6 C 0 km/h
771 16-11-2008 10:08:02 11.4 C 8.21 g/m*3 11.4 C 0 km/h
772 16-11-2008 10:20:02 11.2 C 8.21 g/m*3 11.2 C 0 km/h
773 16-11-2008 10:32:02 10.9 C 8.45 g/m*3 10.9 C 0 km/h
774 16-11-2008 10:44:02 10.7 C 8.64 g/m*3 10.7 C 0 km/h
775 16-11-2008 10:56:03 10.7 C 8.74 g/m*3 10.7 C 0 km/h
Sensor: Nr:Datum:Temp:Abs-Feuchte:Windchill:Wind:
Aussen-T/F 776 16-11-2008 11:08:03 10.8 C 8.9 g/m*3 10.8 C 0 km/h
777 16-11-2008 11:20:02 10.9 C 8.95 g/m*3 10.9 C 0 km/h
778 16-11-2008 11:32:02 11.1 C 9.07 g/m*3 11.1 C 0 km/h
779 16-11-2008 11:44:02 11.6 C 9.46 g/m*3 11.6 C 0 km/h
780 16-11-2008 11:56:02 12.2 C 9.71 g/m*3 12.2 C 0 km/h
781 16-11-2008 12:08:02 12.4 C 9.62 g/m*3 12.4 C 0 km/h
782 16-11-2008 12:20:02 12.5 C 9.46 g/m*3 12.5 C 0 km/h
783 16-11-2008 12:32:02 12.7 C 9.35 g/m*3 12.7 C 0 km/h
784 16-11-2008 12:44:02 12.7 C 9.35 g/m*3 12.7 C 0 km/h
785 16-11-2008 12:56:01 12.7 C 9.24 g/m*3 12.7 C 0 km/h
786 16-11-2008 13:08:02 12.7 C 9.13 g/m*3 12.7 C 0 km/h
787 16-11-2008 13:20:01 12.7 C 9.02 g/m*3 12.7 C 0 km/h
788 16-11-2008 13:32:02 12.4 C 8.85 g/m*3 12.4 C 0 km/h
789 16-11-2008 13:44:02 12.3 C 8.8 g/m*3 12.3 C 0 km/h
790 16-11-2008 13:56:01 12.1 C 8.79 g/m*3 12.1 C 0 km/h
791 16-11-2008 14:08:02 11.5 C 8.88 g/m*3 11.5 C 0 km/h
792 16-11-2008 14:20:01 10.9 C 8.65 g/m*3 10.9 C 0 km/h
793 16-11-2008 14:32:01 10.7 C 8.64 g/m*3 10.7 C 0 km/h
794 16-11-2008 14:44:01 10.4 C 8.58 g/m*3 10.4 C 0 km/h
795 16-11-2008 14:56:01 10.4 C 8.58 g/m*3 10.4 C 0 km/h
796 16-11-2008 15:08:02 10.3 C 8.62 g/m*3 10.3 C 0 km/h
797 16-11-2008 15:20:01 10.1 C 8.51 g/m*3 10.1 C 0 km/h
798 16-11-2008 15:32:02 10.1 C 8.61 g/m*3 10.1 C 0 km/h
799 16-11-2008 15:44:02 10 C 8.55 g/m*3 10 C 0 km/h
800 16-11-2008 15:56:02 9.9 C 8.68 g/m*3 9.9 C 0 km/h
Sensor: Nr:Datum:Temp:Abs-Feuchte:Windchill:Wind:
Aussen-T/F 801 16-11-2008 16:08:02 9.7 C 8.57 g/m*3 9.7 C 0 km/h
802 16-11-2008 16:20:02 9.6 C 8.43 g/m*3 9.6 C 0 km/h
803 16-11-2008 16:32:02 9.6 C 8.52 g/m*3 9.6 C 0 km/h
804 16-11-2008 16:44:02 9.5 C 8.37 g/m*3 9.5 C 0 km/h
805 16-11-2008 16:56:02 9.4 C 8.32 g/m*3 9.4 C 0 km/h
806 16-11-2008 17:08:02 9.1 C 7.99 g/m*3 9.1 C 0 km/h
807 16-11-2008 17:20:02 9.2 C 8.04 g/m*3 9.2 C 0 km/h
808 16-11-2008 17:32:02 9.2 C 7.95 g/m*3 9.2 C 0 km/h
809 16-11-2008 17:44:02 9.3 C 7.91 g/m*3 9.3 C 0 km/h
810 16-11-2008 17:56:02 9.1 C 7.72 g/m*3 9.1 C 0 km/h
811 16-11-2008 18:08:02 8.9 C 7.62 g/m*3 8.9 C 0 km/h
812 16-11-2008 18:20:02 8.8 C 7.66 g/m*3 8.8 C 0 km/h
813 16-11-2008 18:32:02 8.9 C 7.71 g/m*3 8.9 C 0 km/h
814 16-11-2008 18:44:02 8.9 C 7.71 g/m*3 8.9 C 0 km/h
815 16-11-2008 18:56:02 8.8 C 7.66 g/m*3 8.8 C 0 km/h
816 16-11-2008 19:08:03 8.5 C 7.43 g/m*3 8.5 C 0 km/h
817 16-11-2008 19:20:02 8.3 C 7.25 g/m*3 8.3 C 0 km/h
818 16-11-2008 19:32:02 8.2 C 7.29 g/m*3 8.2 C 0 km/h
819 16-11-2008 19:44:02 8.3 C 7.42 g/m*3 8.3 C 0 km/h
820 16-11-2008 19:56:02 8.6 C 7.39 g/m*3 8.6 C 0 km/h
821 16-11-2008 20:08:01 8.8 C 7.22 g/m*3 8.8 C 0 km/h
822 16-11-2008 20:20:02 8.9 C 7.01 g/m*3 8.9 C 0 km/h
823 16-11-2008 20:32:02 8.7 C 6.92 g/m*3 8.7 C 0 km/h
824 16-11-2008 20:44:02 8.7 C 6.83 g/m*3 8.7 C 0 km/h
825 16-11-2008 20:56:02 8.8 C 6.88 g/m*3 8.8 C 0 km/h
Sensor: Nr:Datum:Temp:Abs-Feuchte:Windchill:Wind:
Aussen-T/F 826 16-11-2008 21:08:02 8.8 C 6.79 g/m*3 8.8 C 0 km/h
827 16-11-2008 21:20:02 8.1 C 5.91 g/m*3 8.1 C 0 km/h
828 16-11-2008 21:32:02 7.6 C 5.8 g/m*3 7.6 C 0 km/h
829 16-11-2008 21:44:03 7.3 C 5.77 g/m*3 7.3 C 0 km/h
830 16-11-2008 21:56:02 7 C 5.81 g/m*3 7 C 0 km/h
831 16-11-2008 22:08:01 6.8 C 5.81 g/m*3 6.8 C 0 km/h
832 16-11-2008 22:20:01 6.7 C 5.77 g/m*3 6.7 C 0 km/h
833 16-11-2008 22:32:01 6.5 C 5.7 g/m*3 6.5 C 0 km/h
834 16-11-2008 22:44:01 6.3 C 5.7 g/m*3 6.3 C 0 km/h
835 16-11-2008 22:56:01 6.1 C 5.63 g/m*3 6.1 C 0 km/h
836 16-11-2008 23:08:01 5.8 C 5.73 g/m*3 5.8 C 0 km/h
837 16-11-2008 23:20:01 5.8 C 5.73 g/m*3 5.8 C 0 km/h
838 16-11-2008 23:32:01 5.9 C 5.7 g/m*3 5.9 C 0 km/h
839 16-11-2008 23:44:01 5.8 C 5.66 g/m*3 5.8 C 0 km/h
840 16-11-2008 23:56:01 5.6 C 5.59 g/m*3 5.6 C 0 km/h
841 17-11-2008 00:08:02 5.5 C 5.55 g/m*3 5.5 C 0 km/h
842 17-11-2008 00:20:02 5.1 C 5.47 g/m*3 5.1 C 0 km/h
843 17-11-2008 00:32:02 4.9 C 5.54 g/m*3 4.9 C 0 km/h
844 17-11-2008 00:44:02 5 C 5.57 g/m*3 5 C 0 km/h
845 17-11-2008 00:56:02 4.9 C 5.6 g/m*3 4.9 C 0 km/h
846 17-11-2008 01:08:02 4.7 C 5.66 g/m*3 4.7 C 0 km/h
847 17-11-2008 01:20:02 4.6 C 5.62 g/m*3 4.6 C 0 km/h
848 17-11-2008 01:32:02 4.3 C 5.58 g/m*3 4.3 C 0 km/h
849 17-11-2008 01:44:02 4.1 C 5.5 g/m*3 4.1 C 0 km/h
850 17-11-2008 01:56:02 3.9 C 5.56 g/m*3 3.9 C 0 km/h
Sensor: Nr:Datum:Temp:Abs-Feuchte:Windchill:Wind:
Aussen-T/F 851 17-11-2008 02:08:02 3.7 C 5.48 g/m*3 3.7 C 0 km/h
852 17-11-2008 02:20:02 3.5 C 5.41 g/m*3 3.5 C 0 km/h
853 17-11-2008 02:32:02 3.3 C 5.4 g/m*3 3.3 C 0 km/h
854 17-11-2008 02:44:02 3 C 5.29 g/m*3 3 C 0 km/h
855 17-11-2008 02:56:02 3 C 5.35 g/m*3 3 C 0 km/h
856 17-11-2008 03:08:02 2.7 C 5.3 g/m*3 2.7 C 0 km/h
857 17-11-2008 03:20:02 2.6 C 5.27 g/m*3 2.6 C 0 km/h
858 17-11-2008 03:32:02 2.4 C 5.2 g/m*3 2.4 C 0 km/h
859 17-11-2008 03:44:02 2.2 C 5.18 g/m*3 2.2 C 0 km/h
860 17-11-2008 03:56:03 2.3 C 5.22 g/m*3 2.3 C 0 km/h
861 17-11-2008 04:08:03 2.2 C 5.18 g/m*3 2.2 C 0 km/h
862 17-11-2008 04:20:03 2.2 C 5.18 g/m*3 2.2 C 0 km/h
863 17-11-2008 04:32:03 2.1 C 5.15 g/m*3 2.1 C 0 km/h
864 17-11-2008 04:44:03 1.9 C 5.13 g/m*3 1.9 C 0 km/h
865 17-11-2008 04:56:03 1.7 C 5.06 g/m*3 1.7 C 0 km/h
866 17-11-2008 05:08:03 1.5 C 4.99 g/m*3 1.5 C 0 km/h
867 17-11-2008 05:20:03 1.6 C 5.03 g/m*3 1.6 C 0 km/h
868 17-11-2008 05:32:03 1.4 C 4.96 g/m*3 1.4 C 0 km/h
869 17-11-2008 05:44:03 1.4 C 5.01 g/m*3 1.4 C 0 km/h
870 17-11-2008 05:56:03 1.5 C 5.05 g/m*3 1.5 C 0 km/h
871 17-11-2008 06:08:03 1.5 C 5.1 g/m*3 1.5 C 0 km/h
872 17-11-2008 06:20:03 1.5 C 5.1 g/m*3 1.5 C 0 km/h
873 17-11-2008 06:32:03 1.5 C 5.1 g/m*3 1.5 C 0 km/h
874 17-11-2008 06:44:03 1.4 C 5.07 g/m*3 1.4 C 0 km/h
875 17-11-2008 06:56:03 1.3 C 5.03 g/m*3 1.3 C 0 km/h
Sensor: Nr:Datum:Temp:Abs-Feuchte:Windchill:Wind:
Aussen-T/F 876 17-11-2008 07:08:02 1.1 C 4.96 g/m*3 1.1 C 0 km/h
877 17-11-2008 07:20:02 1.3 C 5.03 g/m*3 1.3 C 0 km/h
878 17-11-2008 07:32:01 1.4 C 5.07 g/m*3 1.4 C 0 km/h
879 17-11-2008 07:44:01 1.4 C 5.07 g/m*3 1.4 C 0 km/h
880 17-11-2008 07:56:01 1.4 C 5.07 g/m*3 1.4 C 0 km/h
881 17-11-2008 08:08:02 1.4 C 5.07 g/m*3 1.4 C 0 km/h
882 17-11-2008 08:20:02 1.5 C 5.1 g/m*3 1.5 C 0 km/h
883 17-11-2008 08:32:02 1.4 C 5.07 g/m*3 1.4 C 0 km/h
884 17-11-2008 08:44:02 1.5 C 5.1 g/m*3 1.5 C 0 km/h
885 17-11-2008 08:56:01 1.6 C 5.14 g/m*3 1.6 C 0 km/h
886 17-11-2008 09:08:01 1.7 C 5.17 g/m*3 1.7 C 0 km/h
887 17-11-2008 09:20:02 1.8 C 5.21 g/m*3 1.8 C 0 km/h
888 17-11-2008 09:32:01 1.9 C 5.24 g/m*3 1.9 C 0 km/h
889 17-11-2008 09:44:01 2 C 5.28 g/m*3 2 C 0 km/h
890 17-11-2008 09:56:02 2 C 5.28 g/m*3 2 C 0 km/h
891 17-11-2008 10:08:01 1.9 C 5.24 g/m*3 1.9 C 0 km/h
892 17-11-2008 10:20:02 2 C 5.28 g/m*3 2 C 0 km/h
893 17-11-2008 10:32:01 2.2 C 5.35 g/m*3 2.2 C 0 km/h
894 17-11-2008 10:44:01 2.5 C 5.46 g/m*3 2.5 C 0 km/h
895 17-11-2008 10:56:01 2.4 C 5.42 g/m*3 2.4 C 0 km/h
896 17-11-2008 11:08:01 2.5 C 5.46 g/m*3 2.5 C 0 km/h
897 17-11-2008 11:20:02 2.7 C 5.54 g/m*3 2.7 C 0 km/h
898 17-11-2008 11:32:01 3.1 C 5.69 g/m*3 3.1 C 0 km/h
899 17-11-2008 11:44:01 3.5 C 5.84 g/m*3 3.5 C 0 km/h
900 17-11-2008 11:56:01 4 C 6.04 g/m*3 4 C 0 km/h
Sensor: Nr:Datum:Temp:Abs-Feuchte:Windchill:Wind:
Aussen-T/F 901 17-11-2008 12:08:01 4.8 C 6.37 g/m*3 4.8 C 0 km/h
902 17-11-2008 12:20:01 6.1 C 6.79 g/m*3 6.1 C 0 km/h
903 17-11-2008 12:32:01 7 C 6.43 g/m*3 7 C 0 km/h
904 17-11-2008 12:44:01 7.6 C 5.96 g/m*3 7.6 C 0 km/h
905 17-11-2008 12:56:01 8 C 5.95 g/m*3 8 C 0 km/h
906 17-11-2008 13:08:02 8.1 C 5.66 g/m*3 8.1 C 0 km/h
907 17-11-2008 13:20:01 8.7 C 5.97 g/m*3 8.7 C 0 km/h
908 17-11-2008 13:32:01 8.5 C 5.89 g/m*3 8.5 C 0 km/h
909 17-11-2008 13:44:01 8.7 C 5.88 g/m*3 8.7 C 0 km/h
910 17-11-2008 13:56:01 8.7 C 5.62 g/m*3 8.7 C 0 km/h
911 17-11-2008 14:08:02 8.9 C 5.69 g/m*3 8.9 C 0 km/h
912 17-11-2008 14:20:01 8.9 C 5.69 g/m*3 8.9 C 0 km/h
913 17-11-2008 14:32:02 8.9 C 5.69 g/m*3 8.9 C 0 km/h
914 17-11-2008 14:44:02 8.7 C 5.53 g/m*3 8.7 C 0 km/h
915 17-11-2008 14:56:01 8.5 C 5.55 g/m*3 8.5 C 0 km/h
916 17-11-2008 15:08:02 8.4 C 5.43 g/m*3 8.4 C 0 km/h
917 17-11-2008 15:20:01 8.3 C 5.48 g/m*3 8.3 C 0 km/h
918 17-11-2008 15:32:02 8.1 C 5.49 g/m*3 8.1 C 0 km/h
919 17-11-2008 15:44:02 8 C 5.54 g/m*3 8 C 0 km/h
920 17-11-2008 15:56:01 7.8 C 5.55 g/m*3 7.8 C 0 km/h
921 17-11-2008 16:08:02 7.4 C 5.49 g/m*3 7.4 C 0 km/h
922 17-11-2008 16:20:01 7 C 5.5 g/m*3 7 C 0 km/h
923 17-11-2008 16:32:02 6.6 C 5.59 g/m*3 6.6 C 0 km/h
924 17-11-2008 16:44:02 6.3 C 5.55 g/m*3 6.3 C 0 km/h
925 17-11-2008 16:56:01 6.2 C 5.66 g/m*3 6.2 C 0 km/h
Sensor: Nr:Datum:Temp:Abs-Feuchte:Windchill:Wind:
Aussen-T/F 926 17-11-2008 17:08:01 6.1 C 5.7 g/m*3 6.1 C 0 km/h
927 17-11-2008 17:20:01 6 C 5.73 g/m*3 6 C 0 km/h
928 17-11-2008 17:32:02 6 C 5.73 g/m*3 6 C 0 km/h
929 17-11-2008 17:44:02 5.9 C 5.7 g/m*3 5.9 C 0 km/h
930 17-11-2008 17:56:01 5.8 C 5.66 g/m*3 5.8 C 0 km/h
931 17-11-2008 18:08:02 5.6 C 5.51 g/m*3 5.6 C 0 km/h
932 17-11-2008 18:20:01 5.3 C 5.41 g/m*3 5.3 C 0 km/h
933 17-11-2008 18:32:02 4.9 C 5.4 g/m*3 4.9 C 0 km/h
934 17-11-2008 18:44:02 4.6 C 5.36 g/m*3 4.6 C 0 km/h
935 17-11-2008 18:56:01 4.5 C 5.39 g/m*3 4.5 C 0 km/h
936 17-11-2008 19:08:01 4.3 C 5.38 g/m*3 4.3 C 0 km/h
937 17-11-2008 19:20:01 4.1 C 5.31 g/m*3 4.1 C 0 km/h
938 17-11-2008 19:32:02 4 C 5.28 g/m*3 4 C 0 km/h
939 17-11-2008 19:44:02 3.9 C 5.37 g/m*3 3.9 C 0 km/h
940 17-11-2008 19:56:02 3.8 C 5.4 g/m*3 3.8 C 0 km/h
941 17-11-2008 20:08:01 3.6 C 5.32 g/m*3 3.6 C 0 km/h
942 17-11-2008 20:20:02 3.6 C 5.39 g/m*3 3.6 C 0 km/h
943 17-11-2008 20:32:01 3.3 C 5.28 g/m*3 3.3 C 0 km/h
944 17-11-2008 20:44:01 3.1 C 5.21 g/m*3 3.1 C 0 km/h
945 17-11-2008 20:56:01 3.1 C 5.27 g/m*3 3.1 C 0 km/h
946 17-11-2008 21:08:02 3 C 5.23 g/m*3 3 C 0 km/h
947 17-11-2008 21:20:01 3 C 5.29 g/m*3 3 C 0 km/h
948 17-11-2008 21:32:02 3.1 C 5.33 g/m*3 3.1 C 0 km/h
949 17-11-2008 21:44:02 3.2 C 5.42 g/m*3 3.2 C 0 km/h
950 17-11-2008 21:56:01 3.4 C 5.5 g/m*3 3.4 C 0 km/h
Sensor: Nr:Datum:Temp:Abs-Feuchte:Windchill:Wind:
Aussen-T/F 951 17-11-2008 22:08:02 3.3 C 5.46 g/m*3 3.3 C 0 km/h
952 17-11-2008 22:20:01 3.3 C 5.46 g/m*3 3.3 C 0 km/h
953 17-11-2008 22:32:02 3.3 C 5.4 g/m*3 3.3 C 0 km/h
954 17-11-2008 22:44:02 3.3 C 5.4 g/m*3 3.3 C 0 km/h
955 17-11-2008 22:57:03 3.2 C 5.36 g/m*3 3.2 C 0 km/h
956 17-11-2008 23:09:03 3.2 C 5.36 g/m*3 3.2 C 0 km/h
957 17-11-2008 23:21:03 3.1 C 5.33 g/m*3 3.1 C 0 km/h
958 17-11-2008 23:33:03 3.1 C 5.33 g/m*3 3.1 C 0 km/h
959 17-11-2008 23:45:03 3 C 5.29 g/m*3 3 C 0 km/h
960 17-11-2008 23:57:03 3 C 5.29 g/m*3 3 C 0 km/h
961 18-11-2008 00:09:03 3 C 5.29 g/m*3 3 C 0 km/h
962 18-11-2008 00:21:03 2.8 C 5.22 g/m*3 2.8 C 0 km/h
963 18-11-2008 00:33:03 2.7 C 5.19 g/m*3 2.7 C 0 km/h
964 18-11-2008 00:45:03 2.6 C 5.15 g/m*3 2.6 C 0 km/h
965 18-11-2008 00:57:03 2.6 C 5.15 g/m*3 2.6 C 0 km/h
966 18-11-2008 01:09:03 2.8 C 5.22 g/m*3 2.8 C 0 km/h
967 18-11-2008 01:21:03 2.7 C 5.13 g/m*3 2.7 C 0 km/h
968 18-11-2008 01:33:03 2.6 C 5.03 g/m*3 2.6 C 0 km/h
969 18-11-2008 01:45:03 2.6 C 5.03 g/m*3 2.6 C 0 km/h
970 18-11-2008 01:57:03 2.7 C 5.07 g/m*3 2.7 C 0 km/h
971 18-11-2008 02:09:03 2.7 C 5.07 g/m*3 2.7 C 0 km/h
972 18-11-2008 02:21:03 2.7 C 5.07 g/m*3 2.7 C 0 km/h
973 18-11-2008 02:33:03 2.7 C 5.07 g/m*3 2.7 C 0 km/h
974 18-11-2008 02:45:03 2.7 C 5.07 g/m*3 2.7 C 0 km/h
975 18-11-2008 02:57:04 2.7 C 5.07 g/m*3 2.7 C 0 km/h
Sensor: Nr:Datum:Temp:Abs-Feuchte:Windchill:Wind:
Aussen-T/F 976 18-11-2008 03:09:04 2.5 C 5 g/m*3 2.5 C 0 km/h
977 18-11-2008 03:21:04 2.3 C 4.93 g/m*3 2.3 C 0 km/h
978 18-11-2008 03:33:04 2.2 C 4.9 g/m*3 2.2 C 0 km/h
979 18-11-2008 03:45:04 2.2 C 4.9 g/m*3 2.2 C 0 km/h
980 18-11-2008 03:57:04 2.1 C 4.92 g/m*3 2.1 C 0 km/h
981 18-11-2008 04:09:04 1.9 C 4.86 g/m*3 1.9 C 0 km/h
982 18-11-2008 04:21:04 1.9 C 4.91 g/m*3 1.9 C 0 km/h
983 18-11-2008 04:33:04 1.7 C 4.85 g/m*3 1.7 C 0 km/h
984 18-11-2008 04:45:04 1.6 C 4.81 g/m*3 1.6 C 0 km/h
985 18-11-2008 04:57:04 1.5 C 4.78 g/m*3 1.5 C 0 km/h
986 18-11-2008 05:09:04 1.5 C 4.78 g/m*3 1.5 C 0 km/h
987 18-11-2008 05:21:04 1.4 C 4.75 g/m*3 1.4 C 0 km/h
988 18-11-2008 05:33:04 1.4 C 4.8 g/m*3 1.4 C 0 km/h
989 18-11-2008 05:45:04 1.5 C 4.83 g/m*3 1.5 C 0 km/h
990 18-11-2008 05:57:04 1.4 C 4.8 g/m*3 1.4 C 0 km/h
991 18-11-2008 06:09:04 1.4 C 4.8 g/m*3 1.4 C 0 km/h
992 18-11-2008 06:21:04 1.6 C 4.92 g/m*3 1.6 C 0 km/h
993 18-11-2008 06:33:04 1.8 C 4.99 g/m*3 1.8 C 0 km/h
994 18-11-2008 06:45:05 2 C 5.06 g/m*3 2 C 0 km/h
995 18-11-2008 06:57:05 2 C 5.06 g/m*3 2 C 0 km/h
996 18-11-2008 07:09:02 2 C 5 g/m*3 2 C 0 km/h
997 18-11-2008 07:21:02 2.2 C 5.07 g/m*3 2.2 C 0 km/h
998 18-11-2008 07:33:02 2.2 C 5.07 g/m*3 2.2 C 0 km/h
999 18-11-2008 07:45:01 2.2 C 5.07 g/m*3 2.2 C 0 km/h
1000 18-11-2008 07:57:01 2.3 C 5.1 g/m*3 2.3 C 0 km/h
Sensor: Nr:Datum:Temp:Abs-Feuchte:Windchill:Wind:
Aussen-T/F 1001 18-11-2008 08:09:02 2.4 C 5.14 g/m*3 2.4 C 0 km/h
1002 18-11-2008 08:21:02 2.5 C 5.17 g/m*3 2.5 C 0 km/h
1003 18-11-2008 08:33:01 2.5 C 5.12 g/m*3 2.5 C 0 km/h
1004 18-11-2008 08:45:01 2.6 C 5.15 g/m*3 2.6 C 0 km/h
1005 18-11-2008 08:57:01 3 C 5.23 g/m*3 3 C 0 km/h
1006 18-11-2008 09:09:02 3.2 C 5.24 g/m*3 3.2 C 0 km/h
1007 18-11-2008 09:21:01 3.9 C 5.24 g/m*3 3.9 C 0 km/h
1008 18-11-2008 09:33:02 4.2 C 5.03 g/m*3 4.2 C 0 km/h
1009 18-11-2008 09:45:02 4.5 C 4.93 g/m*3 4.5 C 0 km/h
1010 18-11-2008 09:57:02 4.8 C 4.9 g/m*3 4.8 C 0 km/h
1011 18-11-2008 10:09:02 5 C 4.82 g/m*3 5 C 0 km/h
1012 18-11-2008 10:21:01 5.1 C 4.79 g/m*3 5.1 C 0 km/h
1013 18-11-2008 10:33:02 5.1 C 4.79 g/m*3 5.1 C 0 km/h
1014 18-11-2008 10:45:02 5 C 4.69 g/m*3 5 C 0 km/h
1015 18-11-2008 10:57:02 5 C 4.76 g/m*3 5 C 0 km/h
1016 18-11-2008 11:09:02 5.1 C 4.86 g/m*3 5.1 C 0 km/h
1017 18-11-2008 11:21:02 4.8 C 5.03 g/m*3 4.8 C 0 km/h
1018 18-11-2008 11:33:02 4.8 C 5.23 g/m*3 4.8 C 0 km/h
1019 18-11-2008 11:45:02 4.9 C 5.33 g/m*3 4.9 C 0 km/h
1020 18-11-2008 11:57:02 5.3 C 5.27 g/m*3 5.3 C 0 km/h
1021 18-11-2008 12:09:03 5.5 C 5.34 g/m*3 5.5 C 0 km/h
1022 18-11-2008 12:21:01 5.7 C 5.34 g/m*3 5.7 C 0 km/h
1023 18-11-2008 12:33:02 5.9 C 5.41 g/m*3 5.9 C 0 km/h
1024 18-11-2008 12:45:02 5.9 C 5.41 g/m*3 5.9 C 0 km/h
1025 18-11-2008 12:57:02 5.9 C 5.41 g/m*3 5.9 C 0 km/h
Sensor: Nr:Datum:Temp:Abs-Feuchte:Windchill:Wind:
Aussen-T/F 1026 18-11-2008 13:09:03 6.1 C 5.41 g/m*3 6.1 C 0 km/h
1027 18-11-2008 13:21:02 6.3 C 5.4 g/m*3 6.3 C 0 km/h
1028 18-11-2008 13:33:02 6.4 C 5.44 g/m*3 6.4 C 0 km/h
1029 18-11-2008 13:45:03 6.7 C 5.55 g/m*3 6.7 C 0 km/h
1030 18-11-2008 13:57:03 7.3 C 5.61 g/m*3 7.3 C 0 km/h
1031 18-11-2008 14:09:02 7.6 C 5.72 g/m*3 7.6 C 0 km/h
1032 18-11-2008 14:21:02 8.1 C 5.57 g/m*3 8.1 C 0 km/h
1033 18-11-2008 14:33:02 7.6 C 5.64 g/m*3 7.6 C 0 km/h
1034 18-11-2008 14:45:02 7.3 C 5.61 g/m*3 7.3 C 0 km/h
1035 18-11-2008 14:57:02 7.3 C 5.77 g/m*3 7.3 C 0 km/h
1036 18-11-2008 15:09:02 7.3 C 5.77 g/m*3 7.3 C 0 km/h
1037 18-11-2008 15:21:02 7.2 C 5.73 g/m*3 7.2 C 0 km/h
1038 18-11-2008 15:33:02 7.1 C 5.77 g/m*3 7.1 C 0 km/h
1039 18-11-2008 15:45:02 7 C 5.81 g/m*3 7 C 0 km/h
1040 18-11-2008 15:57:02 6.9 C 5.93 g/m*3 6.9 C 0 km/h
1041 18-11-2008 16:09:02 6.9 C 5.85 g/m*3 6.9 C 0 km/h
1042 18-11-2008 16:21:02 6.8 C 5.81 g/m*3 6.8 C 0 km/h
1043 18-11-2008 16:33:02 6.8 C 5.89 g/m*3 6.8 C 0 km/h
1044 18-11-2008 16:45:01 6.8 C 5.89 g/m*3 6.8 C 0 km/h
1045 18-11-2008 16:57:01 6.8 C 5.89 g/m*3 6.8 C 0 km/h
1046 18-11-2008 17:09:02 6.8 C 5.97 g/m*3 6.8 C 0 km/h
1047 18-11-2008 17:21:01 6.8 C 5.97 g/m*3 6.8 C 0 km/h
1048 18-11-2008 17:33:02 6.9 C 6 g/m*3 6.9 C 0 km/h
1049 18-11-2008 17:45:03 6.8 C 5.97 g/m*3 6.8 C 0 km/h
1050 18-11-2008 17:57:03 6.4 C 6.04 g/m*3 6.4 C 0 km/h
Sensor: Nr:Datum:Temp:Abs-Feuchte:Windchill:Wind:
Aussen-T/F 1051 18-11-2008 18:09:02 6.3 C 6.14 g/m*3 6.3 C 0 km/h
1052 18-11-2008 18:21:02 6.3 C 6.29 g/m*3 6.3 C 0 km/h
1053 18-11-2008 18:33:02 6.2 C 6.32 g/m*3 6.2 C 0 km/h
1054 18-11-2008 18:45:02 6.2 C 6.4 g/m*3 6.2 C 0 km/h
1055 18-11-2008 18:57:02 6.2 C 6.4 g/m*3 6.2 C 0 km/h
1056 18-11-2008 19:09:02 6.2 C 6.47 g/m*3 6.2 C 0 km/h
1057 18-11-2008 19:21:02 6.4 C 6.48 g/m*3 6.4 C 0 km/h
1058 18-11-2008 19:33:02 6.4 C 6.48 g/m*3 6.4 C 0 km/h
1059 18-11-2008 19:45:01 6.3 C 6.51 g/m*3 6.3 C 0 km/h
1060 18-11-2008 19:57:01 6.4 C 6.56 g/m*3 6.4 C 0 km/h
1061 18-11-2008 20:09:02 6.5 C 6.6 g/m*3 6.5 C 0 km/h
1062 18-11-2008 20:21:01 6.5 C 6.6 g/m*3 6.5 C 0 km/h
1063 18-11-2008 20:33:02 6.5 C 6.6 g/m*3 6.5 C 0 km/h
1064 18-11-2008 20:45:02 6.6 C 6.64 g/m*3 6.6 C 0 km/h
1065 18-11-2008 20:57:02 6.8 C 6.65 g/m*3 6.8 C 0 km/h
1066 18-11-2008 21:09:02 7 C 6.59 g/m*3 7 C 0 km/h
1067 18-11-2008 21:21:03 6.8 C 6.65 g/m*3 6.8 C 0 km/h
1068 18-11-2008 21:33:02 6.7 C 6.69 g/m*3 6.7 C 0 km/h
1069 18-11-2008 21:45:01 6.6 C 6.79 g/m*3 6.6 C 0 km/h
1070 18-11-2008 21:57:01 6.5 C 6.82 g/m*3 6.5 C 0 km/h
1071 18-11-2008 22:09:02 6.5 C 6.9 g/m*3 6.5 C 0 km/h
1072 18-11-2008 22:21:01 6.6 C 6.95 g/m*3 6.6 C 0 km/h
1073 18-11-2008 22:33:02 6.6 C 6.95 g/m*3 6.6 C 0 km/h
1074 18-11-2008 22:45:02 6.8 C 7.11 g/m*3 6.8 C 0 km/h
1075 18-11-2008 22:57:02 6.7 C 7.07 g/m*3 6.7 C 0 km/h
Sensor: Nr:Datum:Temp:Abs-Feuchte:Windchill:Wind:
Aussen-T/F 1076 18-11-2008 23:09:02 6.7 C 7.07 g/m*3 6.7 C 0 km/h
1077 18-11-2008 23:21:02 6.9 C 7.16 g/m*3 6.9 C 0 km/h
1078 18-11-2008 23:33:02 7.2 C 7.22 g/m*3 7.2 C 0 km/h
1079 18-11-2008 23:45:02 7 C 7.13 g/m*3 7 C 0 km/h
1080 18-11-2008 23:57:02 7.3 C 7.27 g/m*3 7.3 C 0 km/h
1081 19-11-2008 00:09:03 7.3 C 7.27 g/m*3 7.3 C 0 km/h
1082 19-11-2008 00:21:02 7.3 C 7.27 g/m*3 7.3 C 0 km/h
1083 19-11-2008 00:33:02 7.2 C 7.14 g/m*3 7.2 C 0 km/h
1084 19-11-2008 00:45:01 7 C 7.05 g/m*3 7 C 0 km/h
1085 19-11-2008 00:57:01 7.3 C 7.19 g/m*3 7.3 C 0 km/h
1086 19-11-2008 01:09:02 7.2 C 6.99 g/m*3 7.2 C 0 km/h
1087 19-11-2008 01:21:01 7 C 6.9 g/m*3 7 C 0 km/h
1088 19-11-2008 01:33:02 7.5 C 7.04 g/m*3 7.5 C 0 km/h
1089 19-11-2008 01:45:02 7.6 C 6.85 g/m*3 7.6 C 0 km/h
1090 19-11-2008 01:57:02 7.9 C 6.82 g/m*3 7.9 C 0 km/h
1091 19-11-2008 02:09:02 7.6 C 6.44 g/m*3 7.6 C 0 km/h
1092 19-11-2008 02:21:02 7.5 C 6.4 g/m*3 7.5 C 0 km/h
1093 19-11-2008 02:33:02 7.3 C 6.4 g/m*3 7.3 C 0 km/h
1094 19-11-2008 02:45:01 7.1 C 6.4 g/m*3 7.1 C 0 km/h
1095 19-11-2008 02:57:01 6.7 C 6.38 g/m*3 6.7 C 0 km/h
1096 19-11-2008 03:09:01 6.4 C 6.41 g/m*3 6.4 C 0 km/h
1097 19-11-2008 03:21:01 6 C 6.24 g/m*3 6 C 0 km/h
1098 19-11-2008 03:33:02 5.8 C 6.3 g/m*3 5.8 C 0 km/h
1099 19-11-2008 03:45:02 5.6 C 6.22 g/m*3 5.6 C 0 km/h
1100 19-11-2008 03:57:02 5.7 C 6.33 g/m*3 5.7 C 0 km/h
Sensor: Nr:Datum:Temp:Abs-Feuchte:Windchill:Wind:
Aussen-T/F 1101 19-11-2008 04:09:01 5.6 C 6.29 g/m*3 5.6 C 0 km/h
1102 19-11-2008 04:21:02 5.5 C 6.32 g/m*3 5.5 C 0 km/h
1103 19-11-2008 04:33:01 5.1 C 6.09 g/m*3 5.1 C 0 km/h
1104 19-11-2008 04:45:01 4.8 C 6.04 g/m*3 4.8 C 0 km/h
1105 19-11-2008 04:57:01 4.6 C 6.02 g/m*3 4.6 C 0 km/h
1106 19-11-2008 05:09:01 4.4 C 5.94 g/m*3 4.4 C 0 km/h
1107 19-11-2008 05:21:02 4.3 C 5.9 g/m*3 4.3 C 0 km/h
1108 19-11-2008 05:33:01 4.4 C 6.01 g/m*3 4.4 C 0 km/h
1109 19-11-2008 05:45:01 4.5 C 6.05 g/m*3 4.5 C 0 km/h
1110 19-11-2008 05:57:01 4.8 C 6.17 g/m*3 4.8 C 0 km/h
1111 19-11-2008 06:09:01 4.8 C 6.17 g/m*3 4.8 C 0 km/h
1112 19-11-2008 06:21:01 4.7 C 6.06 g/m*3 4.7 C 0 km/h
1113 19-11-2008 06:33:01 4.7 C 6 g/m*3 4.7 C 0 km/h
1114 19-11-2008 06:45:01 5 C 5.98 g/m*3 5 C 0 km/h
1115 19-11-2008 06:57:01 5.3 C 5.82 g/m*3 5.3 C 0 km/h
1116 19-11-2008 07:09:02 5.2 C 5.65 g/m*3 5.2 C 0 km/h
1117 19-11-2008 07:21:02 5.3 C 5.68 g/m*3 5.3 C 0 km/h
1118 19-11-2008 07:33:01 5.6 C 5.66 g/m*3 5.6 C 0 km/h
1119 19-11-2008 07:45:01 5.6 C 5.66 g/m*3 5.6 C 0 km/h
1120 19-11-2008 07:57:01 5.6 C 5.66 g/m*3 5.6 C 0 km/h
1121 19-11-2008 08:09:01 5.6 C 5.73 g/m*3 5.6 C 0 km/h
1122 19-11-2008 08:21:01 5.8 C 5.8 g/m*3 5.8 C 0 km/h
1123 19-11-2008 08:33:01 5.9 C 5.77 g/m*3 5.9 C 0 km/h
1124 19-11-2008 08:45:01 6.1 C 5.7 g/m*3 6.1 C 0 km/h
1125 19-11-2008 08:57:01 6.3 C 5.7 g/m*3 6.3 C 0 km/h
Sensor: Nr:Datum:Temp:Abs-Feuchte:Windchill:Wind:
Aussen-T/F 1126 19-11-2008 09:09:02 6.7 C 5.7 g/m*3 6.7 C 0 km/h
1127 19-11-2008 09:21:01 6.8 C 5.74 g/m*3 6.8 C 0 km/h
1128 19-11-2008 09:33:01 6.8 C 5.74 g/m*3 6.8 C 0 km/h
1129 19-11-2008 09:45:01 7 C 5.66 g/m*3 7 C 0 km/h
1130 19-11-2008 09:57:01 7.2 C 5.81 g/m*3 7.2 C 0 km/h
1131 19-11-2008 10:09:02 7.4 C 5.73 g/m*3 7.4 C 0 km/h
1132 19-11-2008 10:21:01 7.4 C 5.81 g/m*3 7.4 C 0 km/h
1133 19-11-2008 10:33:02 7.5 C 5.84 g/m*3 7.5 C 0 km/h
1134 19-11-2008 10:45:01 7.6 C 5.88 g/m*3 7.6 C 0 km/h
1135 19-11-2008 10:57:01 7.8 C 6.04 g/m*3 7.8 C 0 km/h
1136 19-11-2008 11:09:02 7.8 C 5.96 g/m*3 7.8 C 0 km/h
1137 19-11-2008 11:21:01 7.9 C 6 g/m*3 7.9 C 0 km/h
1138 19-11-2008 11:33:02 8.1 C 5.99 g/m*3 8.1 C 0 km/h
1139 19-11-2008 11:45:02 8.5 C 6.06 g/m*3 8.5 C 0 km/h
1140 19-11-2008 11:57:02 8.9 C 6.13 g/m*3 8.9 C 0 km/h
1141 19-11-2008 12:09:01 9.1 C 6.12 g/m*3 9.1 C 0 km/h
1142 19-11-2008 12:21:01 9 C 6.08 g/m*3 9 C 0 km/h
1143 19-11-2008 12:33:01 9.1 C 6.12 g/m*3 9.1 C 0 km/h
1144 19-11-2008 12:45:01 9.6 C 6.32 g/m*3 9.6 C 0 km/h
1145 19-11-2008 12:57:01 9.8 C 6.22 g/m*3 9.8 C 0 km/h
1146 19-11-2008 13:09:02 9.9 C 6.26 g/m*3 9.9 C 0 km/h
1147 19-11-2008 13:21:01 9.9 C 6.16 g/m*3 9.9 C 0 km/h
1148 19-11-2008 13:33:02 10 C 6.01 g/m*3 10 C 0 km/h
1149 19-11-2008 13:45:01 9.9 C 5.98 g/m*3 9.9 C 0 km/h
1150 19-11-2008 13:57:01 10 C 5.92 g/m*3 10 C 0 km/h
Sensor: Nr:Datum:Temp:Abs-Feuchte:Windchill:Wind:
Aussen-T/F 1151 19-11-2008 14:09:02 10.2 C 5.9 g/m*3 10.2 C 0 km/h
1152 19-11-2008 14:21:01 10 C 5.83 g/m*3 10 C 0 km/h
1153 19-11-2008 14:33:02 10.2 C 6 g/m*3 10.2 C 0 km/h
1154 19-11-2008 14:45:01 10.2 C 5.8 g/m*3 10.2 C 0 km/h
1155 19-11-2008 14:57:01 10.2 C 5.71 g/m*3 10.2 C 0 km/h
1156 19-11-2008 15:09:02 10.1 C 5.58 g/m*3 10.1 C 0 km/h
1157 19-11-2008 15:21:01 10 C 5.45 g/m*3 10 C 0 km/h
1158 19-11-2008 15:33:02 9.8 C 5.38 g/m*3 9.8 C 0 km/h
1159 19-11-2008 15:45:01 9.7 C 5.53 g/m*3 9.7 C 0 km/h
1160 19-11-2008 15:57:01 9.7 C 5.44 g/m*3 9.7 C 0 km/h
1161 19-11-2008 16:09:01 9.7 C 5.53 g/m*3 9.7 C 0 km/h
1162 19-11-2008 16:21:01 9.6 C 5.5 g/m*3 9.6 C 0 km/h
1163 19-11-2008 16:33:02 9.5 C 5.55 g/m*3 9.5 C 0 km/h
1164 19-11-2008 16:45:01 9.5 C 5.55 g/m*3 9.5 C 0 km/h
1165 19-11-2008 16:57:02 9.5 C 5.64 g/m*3 9.5 C 0 km/h
1166 19-11-2008 17:09:01 9.3 C 5.66 g/m*3 9.3 C 0 km/h
1167 19-11-2008 17:21:01 9.3 C 5.66 g/m*3 9.3 C 0 km/h
1168 19-11-2008 17:33:01 9.3 C 5.66 g/m*3 9.3 C 0 km/h
1169 19-11-2008 17:45:02 9.3 C 5.66 g/m*3 9.3 C 0 km/h
1170 19-11-2008 17:57:02 9.2 C 5.71 g/m*3 9.2 C 0 km/h
1171 19-11-2008 18:09:01 9.1 C 5.68 g/m*3 9.1 C 0 km/h
1172 19-11-2008 18:21:02 9.1 C 5.77 g/m*3 9.1 C 0 km/h
1173 19-11-2008 18:33:01 9 C 5.73 g/m*3 9 C 0 km/h
1174 19-11-2008 18:45:01 9 C 5.73 g/m*3 9 C 0 km/h
1175 19-11-2008 18:57:01 9 C 5.73 g/m*3 9 C 0 km/h
Sensor: Nr:Datum:Temp:Abs-Feuchte:Windchill:Wind:
Aussen-T/F 1176 19-11-2008 19:09:01 8.9 C 5.87 g/m*3 8.9 C 0 km/h
1177 19-11-2008 19:21:01 8.9 C 5.96 g/m*3 8.9 C 0 km/h
1178 19-11-2008 19:33:01 8.8 C 5.92 g/m*3 8.8 C 0 km/h
1179 19-11-2008 19:45:01 8.8 C 6.01 g/m*3 8.8 C 0 km/h
1180 19-11-2008 19:57:01 8.7 C 5.97 g/m*3 8.7 C 0 km/h
1181 19-11-2008 20:09:01 8.7 C 6.05 g/m*3 8.7 C 0 km/h
1182 19-11-2008 20:21:01 8.8 C 6.09 g/m*3 8.8 C 0 km/h
1183 19-11-2008 20:33:01 8.8 C 6.09 g/m*3 8.8 C 0 km/h
1184 19-11-2008 20:45:01 8.7 C 6.05 g/m*3 8.7 C 0 km/h
1185 19-11-2008 20:57:01 8.8 C 6.18 g/m*3 8.8 C 0 km/h
1186 19-11-2008 21:09:02 8.8 C 6.18 g/m*3 8.8 C 0 km/h
1187 19-11-2008 21:21:01 8.8 C 6.18 g/m*3 8.8 C 0 km/h
1188 19-11-2008 21:33:01 8.8 C 6.27 g/m*3 8.8 C 0 km/h
1189 19-11-2008 21:45:01 8.7 C 6.23 g/m*3 8.7 C 0 km/h
1190 19-11-2008 21:57:01 8.6 C 6.27 g/m*3 8.6 C 0 km/h
1191 19-11-2008 22:09:02 8.6 C 6.27 g/m*3 8.6 C 0 km/h
1192 19-11-2008 22:21:01 8.5 C 6.23 g/m*3 8.5 C 0 km/h
1193 19-11-2008 22:33:01 8.2 C 6.2 g/m*3 8.2 C 0 km/h
1194 19-11-2008 22:45:02 8.5 C 6.23 g/m*3 8.5 C 0 km/h
1195 19-11-2008 22:57:02 8.6 C 6.19 g/m*3 8.6 C 0 km/h
1196 19-11-2008 23:09:01 8.4 C 6.02 g/m*3 8.4 C 0 km/h
1197 19-11-2008 23:21:02 8.2 C 5.95 g/m*3 8.2 C 0 km/h
1198 19-11-2008 23:33:01 8.2 C 5.95 g/m*3 8.2 C 0 km/h
1199 19-11-2008 23:45:02 8.4 C 6.02 g/m*3 8.4 C 0 km/h
1200 19-11-2008 23:57:02 8.4 C 5.94 g/m*3 8.4 C 0 km/h
Sensor: Nr:Datum:Temp:Abs-Feuchte:Windchill:Wind:
Aussen-T/F 1201 20-11-2008 00:09:01 8.5 C 5.98 g/m*3 8.5 C 0 km/h
1202 20-11-2008 00:21:02 8.5 C 5.98 g/m*3 8.5 C 0 km/h
1203 20-11-2008 00:33:01 8.4 C 6.02 g/m*3 8.4 C 0 km/h
1204 20-11-2008 00:45:01 8.3 C 6.07 g/m*3 8.3 C 0 km/h
1205 20-11-2008 00:57:01 8.5 C 6.06 g/m*3 8.5 C 0 km/h
1206 20-11-2008 01:09:02 8.5 C 5.98 g/m*3 8.5 C 0 km/h
1207 20-11-2008 01:21:01 8.2 C 5.95 g/m*3 8.2 C 0 km/h
1208 20-11-2008 01:33:01 8.4 C 6.02 g/m*3 8.4 C 0 km/h
1209 20-11-2008 01:45:01 8.5 C 5.98 g/m*3 8.5 C 0 km/h
1210 20-11-2008 01:57:01 8.5 C 5.89 g/m*3 8.5 C 0 km/h
1211 20-11-2008 02:09:02 8.5 C 5.89 g/m*3 8.5 C 0 km/h
1212 20-11-2008 02:21:01 8.2 C 5.95 g/m*3 8.2 C 0 km/h
1213 20-11-2008 02:33:02 8.3 C 6.07 g/m*3 8.3 C 0 km/h
1214 20-11-2008 02:46:05 8.5 C 6.06 g/m*3 8.5 C 0 km/h
1215 20-11-2008 02:58:05 8.7 C 6.14 g/m*3 8.7 C 0 km/h
1216 20-11-2008 03:10:05 8.9 C 6.13 g/m*3 8.9 C 0 km/h
1217 20-11-2008 03:22:05 8.9 C 6.13 g/m*3 8.9 C 0 km/h
1218 20-11-2008 03:34:02 9.2 C 6.16 g/m*3 9.2 C 0 km/h
1219 20-11-2008 03:46:02 9.1 C 6.12 g/m*3 9.1 C 0 km/h
1220 20-11-2008 03:58:02 9.2 C 6.07 g/m*3 9.2 C 0 km/h
1221 20-11-2008 04:10:02 9.2 C 6.07 g/m*3 9.2 C 0 km/h
1222 20-11-2008 04:22:02 9.2 C 6.16 g/m*3 9.2 C 0 km/h
1223 20-11-2008 04:34:02 9.2 C 6.25 g/m*3 9.2 C 0 km/h
1224 20-11-2008 04:46:01 9.3 C 6.29 g/m*3 9.3 C 0 km/h
1225 20-11-2008 04:58:01 9.3 C 6.29 g/m*3 9.3 C 0 km/h
Sensor: Nr:Datum:Temp:Abs-Feuchte:Windchill:Wind:
Aussen-T/F 1226 20-11-2008 05:10:02 9.3 C 6.29 g/m*3 9.3 C 0 km/h
1227 20-11-2008 05:22:02 9.4 C 6.33 g/m*3 9.4 C 0 km/h
1228 20-11-2008 05:34:02 9.4 C 6.33 g/m*3 9.4 C 0 km/h
1229 20-11-2008 05:46:01 9.4 C 6.33 g/m*3 9.4 C 0 km/h
1230 20-11-2008 05:58:01 9.4 C 6.42 g/m*3 9.4 C 0 km/h
1231 20-11-2008 06:10:02 9.4 C 6.42 g/m*3 9.4 C 0 km/h
1232 20-11-2008 06:22:01 9.4 C 6.42 g/m*3 9.4 C 0 km/h
1233 20-11-2008 06:34:02 9.3 C 6.38 g/m*3 9.3 C 0 km/h
1234 20-11-2008 06:46:01 9.4 C 6.42 g/m*3 9.4 C 0 km/h
1235 20-11-2008 06:58:01 9.6 C 6.5 g/m*3 9.6 C 0 km/h
1236 20-11-2008 07:10:02 9.7 C 6.45 g/m*3 9.7 C 0 km/h
1237 20-11-2008 07:22:02 9.8 C 6.49 g/m*3 9.8 C 0 km/h
1238 20-11-2008 07:34:03 9.8 C 6.49 g/m*3 9.8 C 0 km/h
1239 20-11-2008 07:46:02 9.4 C 6.6 g/m*3 9.4 C 0 km/h
1240 20-11-2008 07:58:02 9.6 C 6.69 g/m*3 9.6 C 0 km/h
1241 20-11-2008 08:10:03 9.7 C 6.64 g/m*3 9.7 C 0 km/h
1242 20-11-2008 08:22:02 9.8 C 6.59 g/m*3 9.8 C 0 km/h
1243 20-11-2008 08:34:02 9.9 C 6.54 g/m*3 9.9 C 0 km/h
1244 20-11-2008 08:46:02 9.9 C 6.54 g/m*3 9.9 C 0 km/h
1245 20-11-2008 08:58:02 9.9 C 6.54 g/m*3 9.9 C 0 km/h
1246 20-11-2008 09:10:01 10 C 6.39 g/m*3 10 C 0 km/h
1247 20-11-2008 09:22:02 10.1 C 6.52 g/m*3 10.1 C 0 km/h
1248 20-11-2008 09:34:02 10.2 C 6.57 g/m*3 10.2 C 0 km/h
1249 20-11-2008 09:46:02 10.2 C 6.66 g/m*3 10.2 C 0 km/h
1250 20-11-2008 09:58:02 10.1 C 6.71 g/m*3 10.1 C 0 km/h
Sensor: Nr:Datum:Temp:Abs-Feuchte:Windchill:Wind:
Aussen-T/F 1251 20-11-2008 10:10:02 10 C 6.77 g/m*3 10 C 0 km/h
1252 20-11-2008 10:22:02 10 C 6.86 g/m*3 10 C 0 km/h
1253 20-11-2008 10:34:02 10.2 C 6.95 g/m*3 10.2 C 0 km/h
1254 20-11-2008 10:46:02 10.2 C 6.95 g/m*3 10.2 C 0 km/h
1255 20-11-2008 10:58:02 10.2 C 6.95 g/m*3 10.2 C 0 km/h
1256 20-11-2008 11:10:02 10.1 C 7 g/m*3 10.1 C 0 km/h
1257 20-11-2008 11:22:02 9.9 C 7.28 g/m*3 9.9 C 0 km/h
1258 20-11-2008 11:34:01 10 C 7.24 g/m*3 10 C 0 km/h
1259 20-11-2008 11:46:02 9.9 C 7.38 g/m*3 9.9 C 0 km/h
1260 20-11-2008 11:58:02 9.8 C 7.42 g/m*3 9.8 C 0 km/h
1261 20-11-2008 12:10:02 10 C 7.33 g/m*3 10 C 0 km/h
1262 20-11-2008 12:22:01 10 C 7.24 g/m*3 10 C 0 km/h
1263 20-11-2008 12:34:01 10.1 C 7.19 g/m*3 10.1 C 0 km/h
1264 20-11-2008 12:46:01 10.1 C 7.19 g/m*3 10.1 C 0 km/h
1265 20-11-2008 12:58:01 9.6 C 7.42 g/m*3 9.6 C 0 km/h
1266 20-11-2008 13:10:02 9.5 C 7.65 g/m*3 9.5 C 0 km/h
1267 20-11-2008 13:22:01 9.5 C 7.74 g/m*3 9.5 C 0 km/h
1268 20-11-2008 13:34:02 9.6 C 7.79 g/m*3 9.6 C 0 km/h
1269 20-11-2008 13:46:02 9.8 C 7.7 g/m*3 9.8 C 0 km/h
1270 20-11-2008 13:58:02 10 C 7.52 g/m*3 10 C 0 km/h
1271 20-11-2008 14:10:02 10.1 C 7.56 g/m*3 10.1 C 0 km/h
1272 20-11-2008 14:22:02 10 C 7.52 g/m*3 10 C 0 km/h
1273 20-11-2008 14:34:02 10 C 7.52 g/m*3 10 C 0 km/h
1274 20-11-2008 14:46:02 10.2 C 7.61 g/m*3 10.2 C 0 km/h
1275 20-11-2008 14:58:02 10.5 C 7.37 g/m*3 10.5 C 0 km/h
Sensor: Nr:Datum:Temp:Abs-Feuchte:Windchill:Wind:
Aussen-T/F 1276 20-11-2008 15:10:03 10.8 C 7.22 g/m*3 10.8 C 0 km/h
1277 20-11-2008 15:22:02 11 C 6.91 g/m*3 11 C 0 km/h
1278 20-11-2008 15:34:03 11.1 C 6.45 g/m*3 11.1 C 0 km/h
1279 20-11-2008 15:46:02 11.3 C 6.22 g/m*3 11.3 C 0 km/h
1280 20-11-2008 15:58:02 11.3 C 6.02 g/m*3 11.3 C 0 km/h
1281 20-11-2008 16:10:01 11.3 C 5.92 g/m*3 11.3 C 0 km/h
1282 20-11-2008 16:22:02 11.2 C 5.98 g/m*3 11.2 C 0 km/h
1283 20-11-2008 16:34:02 11.1 C 6.04 g/m*3 11.1 C 0 km/h
1284 20-11-2008 16:46:02 10.9 C 6.37 g/m*3 10.9 C 0 km/h
1285 20-11-2008 16:58:02 10.8 C 6.62 g/m*3 10.8 C 0 km/h
1286 20-11-2008 17:10:02 10.7 C 6.68 g/m*3 10.7 C 0 km/h
1287 20-11-2008 17:22:02 10.6 C 6.83 g/m*3 10.6 C 0 km/h
1288 20-11-2008 17:34:02 10.4 C 6.94 g/m*3 10.4 C 0 km/h
1289 20-11-2008 17:46:02 10.3 C 6.99 g/m*3 10.3 C 0 km/h
1290 20-11-2008 17:58:02 10.3 C 6.99 g/m*3 10.3 C 0 km/h
1291 20-11-2008 18:10:02 10 C 7.05 g/m*3 10 C 0 km/h
1292 20-11-2008 18:22:02 9.6 C 7.42 g/m*3 9.6 C 0 km/h
1293 20-11-2008 18:34:02 9.3 C 7.64 g/m*3 9.3 C 0 km/h
1294 20-11-2008 18:46:01 9 C 7.49 g/m*3 9 C 0 km/h
1295 20-11-2008 18:58:01 8.9 C 7.62 g/m*3 8.9 C 0 km/h
1296 20-11-2008 19:10:02 8.7 C 7.7 g/m*3 8.7 C 0 km/h
1297 20-11-2008 19:22:02 8.6 C 7.39 g/m*3 8.6 C 0 km/h
1298 20-11-2008 19:34:02 9 C 6.88 g/m*3 9 C 0 km/h
1299 20-11-2008 19:46:02 9.1 C 6.74 g/m*3 9.1 C 0 km/h
1300 20-11-2008 19:58:02 9 C 6.7 g/m*3 9 C 0 km/h
Sensor: Nr:Datum:Temp:Abs-Feuchte:Windchill:Wind:
Aussen-T/F 1301 20-11-2008 20:10:02 9.2 C 6.43 g/m*3 9.2 C 0 km/h
1302 20-11-2008 20:22:01 9.2 C 6.16 g/m*3 9.2 C 0 km/h
1303 20-11-2008 20:34:02 9.3 C 6.2 g/m*3 9.3 C 0 km/h
1304 20-11-2008 20:46:02 9.3 C 6.11 g/m*3 9.3 C 0 km/h
1305 20-11-2008 20:58:02 9.3 C 6.11 g/m*3 9.3 C 0 km/h
1306 20-11-2008 21:10:02 9.3 C 6.02 g/m*3 9.3 C 0 km/h
1307 20-11-2008 21:22:02 9.4 C 5.97 g/m*3 9.4 C 0 km/h
1308 20-11-2008 21:34:02 9 C 6.17 g/m*3 9 C 0 km/h
1309 20-11-2008 21:46:02 8.7 C 6.31 g/m*3 8.7 C 0 km/h
1310 20-11-2008 21:58:02 8.8 C 6.35 g/m*3 8.8 C 0 km/h
1311 20-11-2008 22:10:03 9.1 C 5.94 g/m*3 9.1 C 0 km/h
1312 20-11-2008 22:23:02 9 C 6.08 g/m*3 9 C 0 km/h
1313 20-11-2008 22:35:02 9.1 C 6.03 g/m*3 9.1 C 0 km/h
1314 20-11-2008 22:47:02 8.9 C 6.13 g/m*3 8.9 C 0 km/h
1315 20-11-2008 22:59:02 8.9 C 6.04 g/m*3 8.9 C 0 km/h
1316 20-11-2008 23:11:02 9.1 C 5.94 g/m*3 9.1 C 0 km/h
1317 20-11-2008 23:23:02 8.9 C 5.96 g/m*3 8.9 C 0 km/h
1318 20-11-2008 23:35:02 8.9 C 5.96 g/m*3 8.9 C 0 km/h
1319 20-11-2008 23:47:02 8.8 C 5.92 g/m*3 8.8 C 0 km/h
1320 20-11-2008 23:59:02 8.9 C 6.04 g/m*3 8.9 C 0 km/h
1321 21-11-2008 00:11:02 8.8 C 6.01 g/m*3 8.8 C 0 km/h
1322 21-11-2008 00:23:02 8.9 C 5.96 g/m*3 8.9 C 0 km/h
1323 21-11-2008 00:35:02 8.9 C 5.78 g/m*3 8.9 C 0 km/h
1324 21-11-2008 00:47:02 8.6 C 5.76 g/m*3 8.6 C 0 km/h
1325 21-11-2008 00:59:02 8.8 C 5.83 g/m*3 8.8 C 0 km/h
Sensor: Nr:Datum:Temp:Abs-Feuchte:Windchill:Wind:
Aussen-T/F 1326 21-11-2008 01:11:02 8.9 C 5.87 g/m*3 8.9 C 0 km/h
1327 21-11-2008 01:23:02 9 C 5.82 g/m*3 9 C 0 km/h
1328 21-11-2008 01:35:02 8.9 C 5.96 g/m*3 8.9 C 0 km/h
1329 21-11-2008 01:47:02 8.9 C 5.96 g/m*3 8.9 C 0 km/h
1330 21-11-2008 01:59:02 8.9 C 5.96 g/m*3 8.9 C 0 km/h
1331 21-11-2008 02:11:02 8.9 C 5.87 g/m*3 8.9 C 0 km/h
1332 21-11-2008 02:23:02 8.9 C 5.78 g/m*3 8.9 C 0 km/h
1333 21-11-2008 02:35:03 8.9 C 5.69 g/m*3 8.9 C 0 km/h
1334 21-11-2008 02:47:03 9 C 5.64 g/m*3 9 C 0 km/h
1335 21-11-2008 02:59:03 8.8 C 5.83 g/m*3 8.8 C 0 km/h
1336 21-11-2008 03:11:03 8.7 C 5.88 g/m*3 8.7 C 0 km/h
1337 21-11-2008 03:23:03 8.6 C 5.84 g/m*3 8.6 C 0 km/h
1338 21-11-2008 03:35:03 8.5 C 5.89 g/m*3 8.5 C 0 km/h
1339 21-11-2008 03:47:03 8.6 C 5.84 g/m*3 8.6 C 0 km/h
1340 21-11-2008 03:59:03 8.3 C 6.07 g/m*3 8.3 C 0 km/h
1341 21-11-2008 04:11:03 7.8 C 6.28 g/m*3 7.8 C 0 km/h
1342 21-11-2008 04:23:03 7.5 C 6.32 g/m*3 7.5 C 0 km/h
1343 21-11-2008 04:35:03 7.9 C 6.24 g/m*3 7.9 C 0 km/h
1344 21-11-2008 04:47:03 8.1 C 6.07 g/m*3 8.1 C 0 km/h
1345 21-11-2008 04:59:03 8 C 6.2 g/m*3 8 C 0 km/h
1346 21-11-2008 05:11:03 8 C 6.12 g/m*3 8 C 0 km/h
1347 21-11-2008 05:23:03 8.1 C 6.24 g/m*3 8.1 C 0 km/h
1348 21-11-2008 05:35:03 7.8 C 6.45 g/m*3 7.8 C 0 km/h
1349 21-11-2008 05:47:03 7.6 C 6.53 g/m*3 7.6 C 0 km/h
1350 21-11-2008 05:59:03 7.5 C 6.56 g/m*3 7.5 C 0 km/h
Sensor: Nr:Datum:Temp:Abs-Feuchte:Windchill:Wind:
Aussen-T/F 1351 21-11-2008 06:11:03 7.4 C 6.6 g/m*3 7.4 C 0 km/h
1352 21-11-2008 06:23:03 7.5 C 6.64 g/m*3 7.5 C 0 km/h
1353 21-11-2008 06:35:04 7.5 C 6.56 g/m*3 7.5 C 0 km/h
1354 21-11-2008 06:47:04 7.5 C 6.56 g/m*3 7.5 C 0 km/h
1355 21-11-2008 06:59:04 7.5 C 6.56 g/m*3 7.5 C 0 km/h
1356 21-11-2008 07:11:03 7.6 C 6.53 g/m*3 7.6 C 0 km/h
1357 21-11-2008 07:23:03 7.8 C 6.53 g/m*3 7.8 C 0 km/h
1358 21-11-2008 07:35:02 8 C 6.37 g/m*3 8 C 0 km/h
1359 21-11-2008 07:47:02 8.1 C 6.24 g/m*3 8.1 C 0 km/h
1360 21-11-2008 07:59:02 8.2 C 6.11 g/m*3 8.2 C 0 km/h
1361 21-11-2008 08:11:02 8.5 C 6.06 g/m*3 8.5 C 0 km/h
1362 21-11-2008 08:23:02 8.7 C 5.88 g/m*3 8.7 C 0 km/h
1363 21-11-2008 08:35:02 8.7 C 5.79 g/m*3 8.7 C 0 km/h
1364 21-11-2008 08:47:01 6.4 C 5.81 g/m*3 6.4 C 0 km/h
1365 21-11-2008 08:59:01 6.5 C 6.07 g/m*3 6.5 C 0 km/h
1366 21-11-2008 09:11:02 6.9 C 6.16 g/m*3 6.9 C 0 km/h
1367 21-11-2008 09:23:01 7.5 C 6.16 g/m*3 7.5 C 0 km/h
1368 21-11-2008 09:35:01 7.4 C 5.65 g/m*3 7.4 C 0 km/h
1369 21-11-2008 09:47:01 5.8 C 5.73 g/m*3 5.8 C 0 km/h
1370 21-11-2008 09:59:01 5.7 C 5.91 g/m*3 5.7 C 0 km/h
1371 21-11-2008 10:11:02 6.3 C 6.14 g/m*3 6.3 C 0 km/h
1372 21-11-2008 10:23:01 6.6 C 6.19 g/m*3 6.6 C 0 km/h
1373 21-11-2008 10:35:02 4.9 C 5.67 g/m*3 4.9 C 0 km/h
1374 21-11-2008 10:47:02 4.6 C 5.76 g/m*3 4.6 C 0 km/h
1375 21-11-2008 10:59:02 4.8 C 5.9 g/m*3 4.8 C 0 km/h
Sensor: Nr:Datum:Temp:Abs-Feuchte:Windchill:Wind:
Aussen-T/F 1376 21-11-2008 11:11:02 5 C 5.84 g/m*3 5 C 0 km/h
1377 21-11-2008 11:23:02 5.2 C 5.85 g/m*3 5.2 C 0 km/h
1378 21-11-2008 11:35:02 5.2 C 5.78 g/m*3 5.2 C 0 km/h
1379 21-11-2008 11:47:01 5.2 C 5.78 g/m*3 5.2 C 0 km/h
1380 21-11-2008 11:59:01 5.4 C 5.44 g/m*3 5.4 C 0 km/h
1381 21-11-2008 12:11:02 5.4 C 4.81 g/m*3 5.4 C 0 km/h
1382 21-11-2008 12:23:01 5.9 C 4.83 g/m*3 5.9 C 0 km/h
1383 21-11-2008 12:35:02 6.6 C 4.91 g/m*3 6.6 C 0 km/h
1384 21-11-2008 12:47:02 7 C 4.49 g/m*3 7 C 0 km/h
1385 21-11-2008 12:59:02 6.6 C 4.38 g/m*3 6.6 C 0 km/h
1386 21-11-2008 13:11:01 5.9 C 4.61 g/m*3 5.9 C 0 km/h
1387 21-11-2008 13:23:02 6.3 C 4.37 g/m*3 6.3 C 0 km/h
1388 21-11-2008 13:35:02 6.6 C 3.93 g/m*3 6.6 C 0 km/h
1389 21-11-2008 13:47:01 5.3 C 4.37 g/m*3 5.3 C 0 km/h
1390 21-11-2008 13:59:02 5.1 C 4.31 g/m*3 5.1 C 0 km/h
1391 21-11-2008 14:11:01 5.5 C 4.07 g/m*3 5.5 C 0 km/h
1392 21-11-2008 14:23:01 5.7 C 3.77 g/m*3 5.7 C 0 km/h
1393 21-11-2008 14:35:02 5.4 C 3.77 g/m*3 5.4 C 0 km/h
1394 21-11-2008 14:47:02 5.3 C 3.74 g/m*3 5.3 C 0 km/h
1395 21-11-2008 14:59:02 5.1 C 3.69 g/m*3 5.1 C 0 km/h
1396 21-11-2008 15:11:02 5.1 C 3.76 g/m*3 5.1 C 0 km/h
1397 21-11-2008 15:23:02 2.6 C 4.34 g/m*3 2.6 C 0 km/h
1398 21-11-2008 15:35:02 2 C 4.56 g/m*3 2 C 0 km/h
1399 21-11-2008 15:47:02 2.1 C 4.87 g/m*3 2.1 C 0 km/h
1400 21-11-2008 15:59:02 2.1 C 4.92 g/m*3 2.1 C 0 km/h
Sensor: Nr:Datum:Temp:Abs-Feuchte:Windchill:Wind:
Aussen-T/F 1401 21-11-2008 16:11:02 2.2 C 5.01 g/m*3 2.2 C 0 km/h
1402 21-11-2008 16:23:02 2.4 C 5.08 g/m*3 2.4 C 0 km/h
1403 21-11-2008 16:35:03 2.2 C 4.9 g/m*3 2.2 C 0 km/h
1404 21-11-2008 16:47:02 2.3 C 4.76 g/m*3 2.3 C 0 km/h
1405 21-11-2008 16:59:02 2.5 C 4.66 g/m*3 2.5 C 0 km/h
1406 21-11-2008 17:11:02 2.3 C 4.48 g/m*3 2.3 C 0 km/h
1407 21-11-2008 17:23:02 2.6 C 4.57 g/m*3 2.6 C 0 km/h
1408 21-11-2008 17:35:02 2.6 C 4.57 g/m*3 2.6 C 0 km/h
1409 21-11-2008 17:47:02 2.1 C 4.53 g/m*3 2.1 C 0 km/h
1410 21-11-2008 17:59:02 2.4 C 4.68 g/m*3 2.4 C 0 km/h
1411 21-11-2008 18:11:02 2.2 C 4.39 g/m*3 2.2 C 0 km/h
1412 21-11-2008 18:23:02 2.3 C 4.37 g/m*3 2.3 C 0 km/h
1413 21-11-2008 18:35:02 2.2 C 4.39 g/m*3 2.2 C 0 km/h
1414 21-11-2008 18:47:02 2.1 C 4.53 g/m*3 2.1 C 0 km/h
1415 21-11-2008 18:59:02 1.7 C 4.46 g/m*3 1.7 C 0 km/h
1416 21-11-2008 19:11:01 1.3 C 4.56 g/m*3 1.3 C 0 km/h
1417 21-11-2008 19:23:02 1.3 C 4.61 g/m*3 1.3 C 0 km/h
1418 21-11-2008 19:35:02 1 C 4.52 g/m*3 1 C 0 km/h
1419 21-11-2008 19:47:02 0.7 C 4.47 g/m*3 0.7 C 0 km/h
1420 21-11-2008 19:59:02 0.7 C 4.53 g/m*3 0.7 C 0 km/h
1421 21-11-2008 20:11:02 1 C 4.67 g/m*3 1 C 0 km/h
1422 21-11-2008 20:23:02 1.1 C 4.76 g/m*3 1.1 C 0 km/h
1423 21-11-2008 20:35:02 1 C 4.72 g/m*3 1 C 0 km/h
1424 21-11-2008 20:47:02 0.9 C 4.74 g/m*3 0.9 C 0 km/h
1425 21-11-2008 20:59:02 1.1 C 4.6 g/m*3 1.1 C 0 km/h
Sensor: Nr:Datum:Temp:Abs-Feuchte:Windchill:Wind:
Aussen-T/F 1426 21-11-2008 21:11:02 1.1 C 4.39 g/m*3 1.1 C 0 km/h
1427 21-11-2008 21:23:02 1.2 C 4.21 g/m*3 1.2 C 0 km/h
1428 21-11-2008 21:35:02 1.2 C 4.1 g/m*3 1.2 C 0 km/h
1429 21-11-2008 21:47:02 1.3 C 4.08 g/m*3 1.3 C 0 km/h
1430 21-11-2008 21:59:02 1.4 C 4.05 g/m*3 1.4 C 0 km/h
1431 21-11-2008 22:11:03 1.4 C 4.11 g/m*3 1.4 C 0 km/h
1432 21-11-2008 22:23:02 1.6 C 4.16 g/m*3 1.6 C 0 km/h
1433 21-11-2008 22:35:03 1.5 C 4.24 g/m*3 1.5 C 0 km/h
1434 21-11-2008 22:47:02 1.5 C 4.3 g/m*3 1.5 C 0 km/h
1435 21-11-2008 22:59:02 1.5 C 4.3 g/m*3 1.5 C 0 km/h
1436 21-11-2008 23:11:02 1.7 C 4.3 g/m*3 1.7 C 0 km/h
1437 21-11-2008 23:23:01 1.8 C 4.33 g/m*3 1.8 C 0 km/h
1438 21-11-2008 23:35:02 1.8 C 4.33 g/m*3 1.8 C 0 km/h
1439 21-11-2008 23:47:02 2 C 4.28 g/m*3 2 C 0 km/h
1440 21-11-2008 23:59:02 2 C 4.22 g/m*3 2 C 0 km/h
1441 22-11-2008 00:11:01 2.2 C 4.11 g/m*3 2.2 C 0 km/h
1442 22-11-2008 00:23:01 2.1 C 4.2 g/m*3 2.1 C 0 km/h
1443 22-11-2008 00:35:01 1.6 C 4.33 g/m*3 1.6 C 0 km/h
1444 22-11-2008 00:48:03 1.2 C 4.42 g/m*3 1.2 C 0 km/h
1445 22-11-2008 01:00:03 0.6 C 4.39 g/m*3 0.6 C 0 km/h
1446 22-11-2008 01:12:03 0.4 C 4.43 g/m*3 0.4 C 0 km/h
1447 22-11-2008 01:24:03 0.3 C 4.45 g/m*3 0.3 C 0 km/h
1448 22-11-2008 01:36:03 0.1 C 4.44 g/m*3 0.1 C 0 km/h
1449 22-11-2008 01:48:03 0 C 4.41 g/m*3 0 C 0 km/h
1450 22-11-2008 02:00:03 0 C 4.41 g/m*3 0 C 0 km/h
Sensor: Nr:Datum:Temp:Abs-Feuchte:Windchill:Wind:
Aussen-T/F 1451 22-11-2008 02:12:03 0 C 4.41 g/m*3 0 C 0 km/h
1452 22-11-2008 02:24:03 -0.1 C 4.38 g/m*3 -0.1 C 0 km/h
1453 22-11-2008 02:36:04 0 C 4.41 g/m*3 0 C 0 km/h
1454 22-11-2008 02:48:04 0 C 4.41 g/m*3 0 C 0 km/h
1455 22-11-2008 03:00:04 0.1 C 4.39 g/m*3 0.1 C 0 km/h
1456 22-11-2008 03:12:04 0.2 C 4.37 g/m*3 0.2 C 0 km/h
1457 22-11-2008 03:24:04 0.2 C 4.32 g/m*3 0.2 C 0 km/h
1458 22-11-2008 03:36:04 0.4 C 4.28 g/m*3 0.4 C 0 km/h
1459 22-11-2008 03:48:04 0.3 C 4.16 g/m*3 0.3 C 0 km/h
1460 22-11-2008 04:00:04 0.3 C 4.16 g/m*3 0.3 C 0 km/h
1461 22-11-2008 04:12:04 0.4 C 4.18 g/m*3 0.4 C 0 km/h
1462 22-11-2008 04:24:04 0.5 C 4.16 g/m*3 0.5 C 0 km/h
1463 22-11-2008 04:36:04 0.6 C 4.04 g/m*3 0.6 C 0 km/h
1464 22-11-2008 04:48:04 0.5 C 3.96 g/m*3 0.5 C 0 km/h
1465 22-11-2008 05:00:04 0.4 C 3.93 g/m*3 0.4 C 0 km/h
1466 22-11-2008 05:12:04 0.5 C 3.86 g/m*3 0.5 C 0 km/h
1467 22-11-2008 05:24:04 0.6 C 3.89 g/m*3 0.6 C 0 km/h
1468 22-11-2008 05:36:04 0.7 C 4.02 g/m*3 0.7 C 0 km/h
1469 22-11-2008 05:48:04 0.3 C 4.11 g/m*3 0.3 C 0 km/h
1470 22-11-2008 06:00:04 -0.1 C 4.19 g/m*3 -0.1 C 0 km/h
1471 22-11-2008 06:12:04 -0.2 C 4.25 g/m*3 -0.2 C 0 km/h
1472 22-11-2008 06:24:04 -0.1 C 4.28 g/m*3 -0.1 C 0 km/h
1473 22-11-2008 06:36:05 0 C 4.26 g/m*3 0 C 0 km/h
1474 22-11-2008 06:48:05 0 C 4.22 g/m*3 0 C 0 km/h
1475 22-11-2008 07:00:05 0.1 C 4.1 g/m*3 0.1 C 0 km/h
Sensor: Nr:Datum:Temp:Abs-Feuchte:Windchill:Wind:
Aussen-T/F 1476 22-11-2008 07:12:05 0.1 C 4 g/m*3 0.1 C 0 km/h
1477 22-11-2008 07:24:05 0 C 3.92 g/m*3 0 C 0 km/h
1478 22-11-2008 07:36:05 0.3 C 3.81 g/m*3 0.3 C 0 km/h
1479 22-11-2008 07:48:05 0.2 C 3.78 g/m*3 0.2 C 0 km/h
1480 22-11-2008 08:00:05 0.4 C 3.79 g/m*3 0.4 C 0 km/h
1481 22-11-2008 08:12:05 -0.1 C 3.66 g/m*3 -0.1 C 0 km/h
1482 22-11-2008 08:24:05 -0.2 C 3.68 g/m*3 -0.2 C 0 km/h
1483 22-11-2008 08:36:05 0.2 C 3.73 g/m*3 0.2 C 0 km/h
1484 22-11-2008 08:48:05 0.4 C 3.64 g/m*3 0.4 C 0 km/h
1485 22-11-2008 09:00:05 0.5 C 3.61 g/m*3 0.5 C 0 km/h
1486 22-11-2008 09:12:03 0.6 C 3.64 g/m*3 0.6 C 0 km/h
1487 22-11-2008 09:24:03 0.8 C 3.74 g/m*3 0.8 C 0 km/h
1488 22-11-2008 09:36:03 0.9 C 3.71 g/m*3 0.9 C 0 km/h
1489 22-11-2008 09:48:02 0.7 C 3.71 g/m*3 0.7 C 0 km/h
1490 22-11-2008 10:00:02 0.7 C 3.71 g/m*3 0.7 C 0 km/h
1491 22-11-2008 10:12:03 0.8 C 3.74 g/m*3 0.8 C 0 km/h
1492 22-11-2008 10:24:02 1 C 3.63 g/m*3 1 C 0 km/h
1493 22-11-2008 10:36:03 1.2 C 3.63 g/m*3 1.2 C 0 km/h
1494 22-11-2008 10:48:02 1.5 C 3.65 g/m*3 1.5 C 0 km/h
1495 22-11-2008 11:00:02 1.6 C 3.62 g/m*3 1.6 C 0 km/h
1496 22-11-2008 11:12:02 1.5 C 3.6 g/m*3 1.5 C 0 km/h
1497 22-11-2008 11:24:02 1.5 C 3.65 g/m*3 1.5 C 0 km/h
1498 22-11-2008 11:36:01 1.9 C 3.7 g/m*3 1.9 C 0 km/h
1499 22-11-2008 11:48:02 2.1 C 3.64 g/m*3 2.1 C 0 km/h
1500 22-11-2008 12:00:02 1.7 C 3.81 g/m*3 1.7 C 0 km/h
Sensor: Nr:Datum:Temp:Abs-Feuchte:Windchill:Wind:
Aussen-T/F 1501 22-11-2008 12:12:01 1 C 4.1 g/m*3 1 C 0 km/h
1502 22-11-2008 12:24:02 1.7 C 4.03 g/m*3 1.7 C 0 km/h
1503 22-11-2008 12:36:01 1.9 C 3.86 g/m*3 1.9 C 0 km/h
1504 22-11-2008 12:48:02 2.2 C 3.72 g/m*3 2.2 C 0 km/h
1505 22-11-2008 13:00:02 2.2 C 3.72 g/m*3 2.2 C 0 km/h
1506 22-11-2008 13:12:01 2.3 C 3.69 g/m*3 2.3 C 0 km/h
1507 22-11-2008 13:24:02 2.2 C 3.72 g/m*3 2.2 C 0 km/h
1508 22-11-2008 13:36:01 2 C 3.67 g/m*3 2 C 0 km/h
1509 22-11-2008 13:48:01 2.2 C 3.72 g/m*3 2.2 C 0 km/h
1510 22-11-2008 14:00:01 2.2 C 3.72 g/m*3 2.2 C 0 km/h
1511 22-11-2008 14:12:02 2.3 C 3.63 g/m*3 2.3 C 0 km/h
1512 22-11-2008 14:24:02 2.5 C 3.74 g/m*3 2.5 C 0 km/h
1513 22-11-2008 14:36:01 2.6 C 3.59 g/m*3 2.6 C 0 km/h
1514 22-11-2008 14:48:02 2.5 C 3.39 g/m*3 2.5 C 0 km/h
1515 22-11-2008 15:00:02 2.6 C 3.47 g/m*3 2.6 C 0 km/h
1516 22-11-2008 15:12:02 2.5 C 3.33 g/m*3 2.5 C 0 km/h
1517 22-11-2008 15:24:01 2.5 C 3.28 g/m*3 2.5 C 0 km/h
1518 22-11-2008 15:36:02 2.2 C 3.27 g/m*3 2.2 C 0 km/h
1519 22-11-2008 15:48:02 2.2 C 3.27 g/m*3 2.2 C 0 km/h
1520 22-11-2008 16:00:02 2.4 C 3.2 g/m*3 2.4 C 0 km/h
1521 22-11-2008 16:12:02 2.3 C 3.23 g/m*3 2.3 C 0 km/h
1522 22-11-2008 16:24:02 2.1 C 3.3 g/m*3 2.1 C 0 km/h
1523 22-11-2008 16:36:03 1.8 C 3.4 g/m*3 1.8 C 0 km/h
1524 22-11-2008 16:48:02 1.6 C 3.46 g/m*3 1.6 C 0 km/h
1525 22-11-2008 17:00:02 1.3 C 3.44 g/m*3 1.3 C 0 km/h
Sensor: Nr:Datum:Temp:Abs-Feuchte:Windchill:Wind:
Aussen-T/F 1526 22-11-2008 17:12:03 1.3 C 3.5 g/m*3 1.3 C 0 km/h
1527 22-11-2008 17:24:02 1.5 C 3.54 g/m*3 1.5 C 0 km/h
1528 22-11-2008 17:36:03 1.5 C 3.54 g/m*3 1.5 C 0 km/h
1529 22-11-2008 17:48:02 1.5 C 3.54 g/m*3 1.5 C 0 km/h
1530 22-11-2008 18:00:02 1.6 C 3.57 g/m*3 1.6 C 0 km/h
1531 22-11-2008 18:12:02 1.7 C 3.54 g/m*3 1.7 C 0 km/h
1532 22-11-2008 18:24:02 1.6 C 3.57 g/m*3 1.6 C 0 km/h
1533 22-11-2008 18:36:02 1.7 C 3.59 g/m*3 1.7 C 0 km/h
1534 22-11-2008 18:48:02 1.6 C 3.62 g/m*3 1.6 C 0 km/h
1535 22-11-2008 19:00:02 1.7 C 3.54 g/m*3 1.7 C 0 km/h
1536 22-11-2008 19:12:01 1.7 C 3.59 g/m*3 1.7 C 0 km/h
1537 22-11-2008 19:24:02 1.4 C 3.57 g/m*3 1.4 C 0 km/h
1538 22-11-2008 19:36:01 1.4 C 3.63 g/m*3 1.4 C 0 km/h
1539 22-11-2008 19:48:02 1.1 C 3.5 g/m*3 1.1 C 0 km/h
1540 22-11-2008 20:00:02 0.7 C 3.56 g/m*3 0.7 C 0 km/h
1541 22-11-2008 20:12:01 0.9 C 3.61 g/m*3 0.9 C 0 km/h
1542 22-11-2008 20:24:02 1.1 C 3.55 g/m*3 1.1 C 0 km/h
1543 22-11-2008 20:36:01 1.3 C 3.55 g/m*3 1.3 C 0 km/h
1544 22-11-2008 20:48:01 1.3 C 3.6 g/m*3 1.3 C 0 km/h
1545 22-11-2008 21:00:01 1.3 C 3.6 g/m*3 1.3 C 0 km/h
1546 22-11-2008 21:12:02 1.2 C 3.58 g/m*3 1.2 C 0 km/h
1547 22-11-2008 21:24:01 1.1 C 3.55 g/m*3 1.1 C 0 km/h
1548 22-11-2008 21:36:01 1 C 3.53 g/m*3 1 C 0 km/h
1549 22-11-2008 21:48:01 0.9 C 3.56 g/m*3 0.9 C 0 km/h
1550 22-11-2008 22:00:01 0.7 C 3.51 g/m*3 0.7 C 0 km/h
Sensor: Nr:Datum:Temp:Abs-Feuchte:Windchill:Wind:
Aussen-T/F 1551 22-11-2008 22:12:02 0.8 C 3.58 g/m*3 0.8 C 0 km/h
1552 22-11-2008 22:24:01 0.8 C 3.58 g/m*3 0.8 C 0 km/h
1553 22-11-2008 22:36:02 1 C 3.53 g/m*3 1 C 0 km/h
1554 22-11-2008 22:48:02 1.1 C 3.5 g/m*3 1.1 C 0 km/h
1555 22-11-2008 23:00:02 1 C 3.53 g/m*3 1 C 0 km/h
1556 22-11-2008 23:12:03 1 C 3.53 g/m*3 1 C 0 km/h
1557 22-11-2008 23:24:02 1.1 C 3.5 g/m*3 1.1 C 0 km/h
1558 22-11-2008 23:36:02 1 C 3.53 g/m*3 1 C 0 km/h
1559 22-11-2008 23:48:02 0.9 C 3.61 g/m*3 0.9 C 0 km/h
1560 23-11-2008 00:00:02 0.8 C 3.58 g/m*3 0.8 C 0 km/h
1561 23-11-2008 00:12:02 0.9 C 3.61 g/m*3 0.9 C 0 km/h
1562 23-11-2008 00:24:02 0.9 C 3.66 g/m*3 0.9 C 0 km/h
1563 23-11-2008 00:36:02 0.8 C 3.74 g/m*3 0.8 C 0 km/h
1564 23-11-2008 00:48:02 0.6 C 3.84 g/m*3 0.6 C 0 km/h
1565 23-11-2008 01:00:02 0.5 C 3.91 g/m*3 0.5 C 0 km/h
1566 23-11-2008 01:12:02 0.4 C 3.93 g/m*3 0.4 C 0 km/h
1567 23-11-2008 01:24:02 0.4 C 3.98 g/m*3 0.4 C 0 km/h
1568 23-11-2008 01:36:02 0.3 C 4.01 g/m*3 0.3 C 0 km/h
1569 23-11-2008 01:48:02 0.1 C 4.05 g/m*3 0.1 C 0 km/h
1570 23-11-2008 02:00:02 0.1 C 4.1 g/m*3 0.1 C 0 km/h
1571 23-11-2008 02:12:03 0.2 C 4.18 g/m*3 0.2 C 0 km/h
1572 23-11-2008 02:24:02 0.2 C 4.22 g/m*3 0.2 C 0 km/h
1573 23-11-2008 02:36:03 0.1 C 4.24 g/m*3 0.1 C 0 km/h
1574 23-11-2008 02:48:01 0.1 C 4.29 g/m*3 0.1 C 0 km/h
1575 23-11-2008 03:00:01 0.2 C 4.37 g/m*3 0.2 C 0 km/h
Sensor: Nr:Datum:Temp:Abs-Feuchte:Windchill:Wind:
Aussen-T/F 1576 23-11-2008 03:12:01 0.2 C 4.42 g/m*3 0.2 C 0 km/h
1577 23-11-2008 03:24:01 0.3 C 4.5 g/m*3 0.3 C 0 km/h
1578 23-11-2008 03:36:01 0.3 C 4.5 g/m*3 0.3 C 0 km/h
1579 23-11-2008 03:48:01 0.3 C 4.5 g/m*3 0.3 C 0 km/h
1580 23-11-2008 04:00:01 0.5 C 4.61 g/m*3 0.5 C 0 km/h
1581 23-11-2008 04:12:02 0.5 C 4.61 g/m*3 0.5 C 0 km/h
1582 23-11-2008 04:24:01 0.5 C 4.61 g/m*3 0.5 C 0 km/h
1583 23-11-2008 04:36:02 0.5 C 4.61 g/m*3 0.5 C 0 km/h
1584 23-11-2008 04:48:01 0.5 C 4.56 g/m*3 0.5 C 0 km/h
1585 23-11-2008 05:00:01 0.5 C 4.51 g/m*3 0.5 C 0 km/h
1586 23-11-2008 05:12:02 0.6 C 4.49 g/m*3 0.6 C 0 km/h
1587 23-11-2008 05:24:01 0.5 C 4.41 g/m*3 0.5 C 0 km/h
1588 23-11-2008 05:36:02 0.5 C 4.36 g/m*3 0.5 C 0 km/h
1589 23-11-2008 05:48:01 0.5 C 4.36 g/m*3 0.5 C 0 km/h
1590 23-11-2008 06:00:01 0.6 C 4.34 g/m*3 0.6 C 0 km/h
1591 23-11-2008 06:12:02 0.7 C 4.37 g/m*3 0.7 C 0 km/h
1592 23-11-2008 06:24:01 0.7 C 4.37 g/m*3 0.7 C 0 km/h
1593 23-11-2008 06:36:02 0.6 C 4.34 g/m*3 0.6 C 0 km/h
1594 23-11-2008 06:48:01 0.6 C 4.34 g/m*3 0.6 C 0 km/h
1595 23-11-2008 07:00:02 0.6 C 4.39 g/m*3 0.6 C 0 km/h
1596 23-11-2008 07:12:01 0.6 C 4.39 g/m*3 0.6 C 0 km/h
1597 23-11-2008 07:24:01 0.6 C 4.44 g/m*3 0.6 C 0 km/h
1598 23-11-2008 07:36:01 0.6 C 4.44 g/m*3 0.6 C 0 km/h
1599 23-11-2008 07:48:01 0.6 C 4.44 g/m*3 0.6 C 0 km/h
1600 23-11-2008 08:00:01 0.6 C 4.49 g/m*3 0.6 C 0 km/h
Sensor: Nr:Datum:Temp:Abs-Feuchte:Windchill:Wind:
Aussen-T/F 1601 23-11-2008 08:12:02 0.7 C 4.53 g/m*3 0.7 C 0 km/h
1602 23-11-2008 08:24:02 0.7 C 4.53 g/m*3 0.7 C 0 km/h
1603 23-11-2008 08:36:01 0.8 C 4.56 g/m*3 0.8 C 0 km/h
1604 23-11-2008 08:48:01 0.7 C 4.53 g/m*3 0.7 C 0 km/h
1605 23-11-2008 09:00:01 0.8 C 4.56 g/m*3 0.8 C 0 km/h
1606 23-11-2008 09:12:02 1.1 C 4.55 g/m*3 1.1 C 0 km/h
1607 23-11-2008 09:24:01 1.2 C 4.42 g/m*3 1.2 C 0 km/h
1608 23-11-2008 09:36:01 1.5 C 4.4 g/m*3 1.5 C 0 km/h
1609 23-11-2008 09:48:01 1.6 C 4.33 g/m*3 1.6 C 0 km/h
1610 23-11-2008 10:00:01 1.7 C 4.3 g/m*3 1.7 C 0 km/h
1611 23-11-2008 10:12:02 1.9 C 4.25 g/m*3 1.9 C 0 km/h
1612 23-11-2008 10:24:01 2.1 C 4.2 g/m*3 2.1 C 0 km/h
1613 23-11-2008 10:36:02 2 C 4.11 g/m*3 2 C 0 km/h
1614 23-11-2008 10:48:02 2.1 C 4.03 g/m*3 2.1 C 0 km/h
1615 23-11-2008 11:00:02 2.2 C 4 g/m*3 2.2 C 0 km/h
1616 23-11-2008 11:12:01 2.4 C 4 g/m*3 2.4 C 0 km/h
1617 23-11-2008 11:24:02 2.5 C 3.97 g/m*3 2.5 C 0 km/h
1618 23-11-2008 11:36:02 2.6 C 3.99 g/m*3 2.6 C 0 km/h
1619 23-11-2008 11:48:02 2.6 C 3.94 g/m*3 2.6 C 0 km/h
1620 23-11-2008 12:00:02 2.5 C 3.85 g/m*3 2.5 C 0 km/h
1621 23-11-2008 12:12:01 2.4 C 3.83 g/m*3 2.4 C 0 km/h
1622 23-11-2008 12:24:02 2.4 C 3.83 g/m*3 2.4 C 0 km/h
1623 23-11-2008 12:36:02 2.2 C 3.83 g/m*3 2.2 C 0 km/h
1624 23-11-2008 12:48:02 2.3 C 3.91 g/m*3 2.3 C 0 km/h
1625 23-11-2008 13:00:02 2.3 C 3.86 g/m*3 2.3 C 0 km/h
Sensor: Nr:Datum:Temp:Abs-Feuchte:Windchill:Wind:
Aussen-T/F 1626 23-11-2008 13:12:01 2.1 C 3.69 g/m*3 2.1 C 0 km/h
1627 23-11-2008 13:24:02 1.8 C 3.67 g/m*3 1.8 C 0 km/h
1628 23-11-2008 13:36:01 2 C 3.72 g/m*3 2 C 0 km/h
1629 23-11-2008 13:48:02 2 C 3.72 g/m*3 2 C 0 km/h
1630 23-11-2008 14:00:02 2 C 3.61 g/m*3 2 C 0 km/h
1631 23-11-2008 14:12:02 1.8 C 3.56 g/m*3 1.8 C 0 km/h
1632 23-11-2008 14:24:02 1.7 C 3.48 g/m*3 1.7 C 0 km/h
1633 23-11-2008 14:36:01 1.6 C 3.46 g/m*3 1.6 C 0 km/h
1634 23-11-2008 14:48:01 1.6 C 3.46 g/m*3 1.6 C 0 km/h
1635 23-11-2008 15:00:01 1.6 C 3.41 g/m*3 1.6 C 0 km/h
1636 23-11-2008 15:12:02 1.6 C 3.41 g/m*3 1.6 C 0 km/h
1637 23-11-2008 15:24:02 1.6 C 3.46 g/m*3 1.6 C 0 km/h
1638 23-11-2008 15:36:01 1.5 C 3.44 g/m*3 1.5 C 0 km/h
1639 23-11-2008 15:48:01 1.5 C 3.44 g/m*3 1.5 C 0 km/h
1640 23-11-2008 16:00:01 1.5 C 3.44 g/m*3 1.5 C 0 km/h
1641 23-11-2008 16:12:02 1.4 C 3.52 g/m*3 1.4 C 0 km/h
1642 23-11-2008 16:24:02 1.2 C 3.47 g/m*3 1.2 C 0 km/h
1643 23-11-2008 16:36:02 1.2 C 3.53 g/m*3 1.2 C 0 km/h
1644 23-11-2008 16:48:02 1.1 C 3.55 g/m*3 1.1 C 0 km/h
1645 23-11-2008 17:00:02 1 C 3.58 g/m*3 1 C 0 km/h
1646 23-11-2008 17:12:01 0.8 C 3.74 g/m*3 0.8 C 0 km/h
1647 23-11-2008 17:24:02 0.5 C 3.86 g/m*3 0.5 C 0 km/h
1648 23-11-2008 17:36:01 0.3 C 4.01 g/m*3 0.3 C 0 km/h
1649 23-11-2008 17:48:02 0.1 C 4.15 g/m*3 0.1 C 0 km/h
1650 23-11-2008 18:00:02 0.1 C 4.2 g/m*3 0.1 C 0 km/h
Sensor: Nr:Datum:Temp:Abs-Feuchte:Windchill:Wind:
Aussen-T/F 1651 23-11-2008 18:12:01 0 C 4.22 g/m*3 0 C 0 km/h
1652 23-11-2008 18:24:02 0 C 4.26 g/m*3 0 C 0 km/h
1653 23-11-2008 18:36:01 0 C 4.26 g/m*3 0 C 0 km/h
1654 23-11-2008 18:48:01 0 C 4.26 g/m*3 0 C 0 km/h
1655 23-11-2008 19:00:01 -0.1 C 4.23 g/m*3 -0.1 C 0 km/h
1656 23-11-2008 19:12:02 -0.2 C 4.21 g/m*3 -0.2 C 0 km/h
1657 23-11-2008 19:24:01 -0.2 C 4.16 g/m*3 -0.2 C 0 km/h
1658 23-11-2008 19:36:02 -0.2 C 4.16 g/m*3 -0.2 C 0 km/h
1659 23-11-2008 19:48:01 -0.2 C 4.16 g/m*3 -0.2 C 0 km/h
1660 23-11-2008 20:00:01 -0.2 C 4.16 g/m*3 -0.2 C 0 km/h
1661 23-11-2008 20:12:02 -0.2 C 4.21 g/m*3 -0.2 C 0 km/h
1662 23-11-2008 20:24:01 -0.2 C 4.21 g/m*3 -0.2 C 0 km/h
1663 23-11-2008 20:36:02 -0.2 C 4.16 g/m*3 -0.2 C 0 km/h
1664 23-11-2008 20:48:01 -0.1 C 4.19 g/m*3 -0.1 C 0 km/h
1665 23-11-2008 21:00:01 -0.1 C 4.19 g/m*3 -0.1 C 0 km/h
1666 23-11-2008 21:12:01 -0.1 C 4.19 g/m*3 -0.1 C 0 km/h
1667 23-11-2008 21:24:01 -0.1 C 4.14 g/m*3 -0.1 C 0 km/h
1668 23-11-2008 21:36:01 -0.1 C 4.14 g/m*3 -0.1 C 0 km/h
1669 23-11-2008 21:49:02 0 C 4.17 g/m*3 0 C 0 km/h
1670 23-11-2008 22:01:02 0 C 4.17 g/m*3 0 C 0 km/h
1671 23-11-2008 22:13:02 0.1 C 4.2 g/m*3 0.1 C 0 km/h
1672 23-11-2008 22:25:02 0.1 C 4.15 g/m*3 0.1 C 0 km/h
1673 23-11-2008 22:37:02 0.1 C 4.15 g/m*3 0.1 C 0 km/h
1674 23-11-2008 22:49:02 0.1 C 4.15 g/m*3 0.1 C 0 km/h
1675 23-11-2008 23:01:02 0.2 C 4.18 g/m*3 0.2 C 0 km/h
Sensor: Nr:Datum:Temp:Abs-Feuchte:Windchill:Wind:
Aussen-T/F 1676 23-11-2008 23:13:02 0.2 C 4.18 g/m*3 0.2 C 0 km/h
1677 23-11-2008 23:25:02 0.2 C 4.22 g/m*3 0.2 C 0 km/h
1678 23-11-2008 23:37:02 0.1 C 4.2 g/m*3 0.1 C 0 km/h
1679 23-11-2008 23:49:02 0.2 C 4.27 g/m*3 0.2 C 0 km/h

Legende:
   Min
   Max


Maximal/Minimal-Werte vom 17.04.2019 - 19.05.2019

Sensor Min Max Avg
Temp
(Aussen-T/F)
2.2 °C
13-05-2019  06:50:00
26.6 °C
24-04-2019  17:05:00
11.51 °C

Die Daten stammen von einer Davis Vantage Pro 2 Wetter-Station und werden unter Linux mit der Software wview2wettercgi und aufbereitet. Alle Angaben erfolgen ohne Gewähr für ihre Vollständigkeit oder Richtigkeit.
Kontakt: Rainer Krienke krienke@uni-koblenz.de . Meine Webseiten an der Uni Koblenz oder privat.
Version: $Revision: 0.78 $